     2              OBSERVATION DATA    GPS                 RINEX VERSION / TYPE
teqc 1997Sep10 19970910 19:01:20UTC                         PGM / RUN BY / DATE
                                                            COMMENT
BIT 2 OF LLI FLAGS DATA COLLECTED UNDER A-S CONDITION       COMMENT
BIT 2 OF LLI FLAGS DATA COLLECTED UNDER A-S CONDITION       COMMENT
Original Marker Name: unknown                               COMMENT
Campaign Name: Southern California GPS Survey March - A     COMMENT
4-Character Station Name: DSHO                              COMMENT
6-Character Antenna Code: TI4100                            COMMENT
Vertical Measurement Point: PAE                             COMMENT
Vertical Offset to Rinex Ref. Point: 0.0000                 COMMENT
Radial Measurement Point: RRP                               COMMENT
Radial Offset to Rinex Ref. Point: 0.0000                   COMMENT
Antenna Height from Field Measurement: 1.5369 m             COMMENT
Original XYZ: 0.0000 0.0000 0.0000                          COMMENT
New XYZ position is based on association with SCEC monument COMMENT
E1D0H9V7+0011. Position of that monument is believed to be  COMMENT
valid to within 1 m horizontally; vertical accuracy         COMMENT
should be no worse than 3-times this value.                 COMMENT
                                                            COMMENT
Revised Rinex header created by UCSD GPS archive for        COMMENT
GSAC on 12-Apr-1999 (1999:102) 05:06:40 GMT                 COMMENT
For assistance contact dagnew@ucsd.edu or hjohnson@ucsd.edu COMMENT
                                                            COMMENT
(DESERT SHORES COMMUNITY PARK)                              MARKER NAME
unknown NATIONAL GEODETIC SURVEY                            OBSERVER / AGENCY
UNKNOWN TI 4100 GSI TI4100                                  REC # / TYPE / VERS
4017 TI 4100                                                ANT # / TYPE
 -2340255.0000 -4789064.0000  3490751.0000                  APPROX POSITION XYZ
        1.5369        0.0000        0.0000                  ANTENNA: DELTA H/E/N
     1     1     0                                          WAVELENGTH FACT L1/2
     6    L1    L2    P1    P2    D1    D2                  # / TYPES OF OBSERV
     0                                                      INTERVAL
  1988     3    25     3    14   35.000000                  TIME OF FIRST OBS
  1988     3    25     8    19   59.000000                  TIME OF LAST OBS
     0                                                      # OF SATELLITES
                                                            END OF HEADER
 88  3 25  3 14 35.3000000  0  3G 6G 9G11
   5325434.880 9  -8981071.263 8  22334345.878    22334349.943        1767.596
      1378.155
    132668.739 9    -26551.580 8  24948227.248    24948232.583        3044.211
      2339.527
    128891.581 9                                                      3092.081

 88  3 25  3 40 29.0800000  0  3G 6G 9G11
   2873057.582 9 -10892013.494 9  21867673.021    21867676.629        1357.132
      1055.846
  -4563023.170 9  -3685527.073 8  24054664.053    24054668.850        3009.889
      2354.372
  -4153903.915 9  -3304155.628 8  22662281.847    22662286.730        2389.588
      1865.676
 88  3 25  3 40 59.0800000  0  3G 6G 9G11
   2832542.162 9 -10923583.937 9  21859962.406    21859966.858        1353.192
      1053.510
  -4653412.067 9  -3755959.919 8  24037461.521    24037468.347        3025.423
      2345.778
  -4225247.619 9  -3359748.081 9  22648705.144    22648710.302        2372.387
      1852.099
 88  3 25  3 41 29.0800000  0  3G 6G 9G11
   2792326.335 8 -10954920.934 9  21852309.801    21852314.081        1334.373
      1041.026
  -4743760.295 9  -3826361.052 9  24020269.591    24020275.836        3013.741
      2330.548
  -4296125.800 9  -3414977.813 7  22635216.645    22635224.326        2351.701
      1829.872
 88  3 25  3 41 59.0800000  0  3G 6G 9G11
   2752412.079 9 -10986022.936 9  21844714.349    21844718.172        1331.430
      1025.131
  -4834066.194 8  -3896729.220 9  24003085.143    24003090.241        3011.524
      2341.074
  -4366537.216 9  -3469843.812 9  22621818.130    22621824.733        2352.308
      1815.227
 88  3 25  3 42 29.0800000  0  3G 6G 9G11
   2712801.765 9 -11016888.107 9  21837176.423    21837180.432        1321.997
      1032.992
  -4924328.112 9  -3967063.111 9  23985909.147    23985915.114        3006.755
      2343.485
  -4436480.072 9  -3524344.700 8  22608508.947    22608514.649        2324.262
      1818.768
 88  3 25  3 42 59.0800000  0  3G 6G 9G11
   2673498.148 9 -11047514.278 9  21829696.941    21829701.463        1315.434
      1025.778
  -5014543.434 9  -4037360.699 8  23968741.263    23968747.767        3017.138
      2344.107
  -4505952.137 9  -3578478.740 9  22595288.751    22595294.267        2308.353
      1804.060
 88  3 25  3 43 29.0800000  0  3G 6G 9G11
   2634502.738 1 -11077900.301 1  21822277.827    21822280.327        1278.537
      1007.466
  -5104711.170 9  -4107621.221 9  23951582.888    23951587.612        3015.152
      2355.633
  -4574952.327 9  -3632245.092 8  22582158.589    22582164.756        2292.013
      1793.870
 88  3 25  3 43 59.0800000  0  3G 6G 9G11
   2595817.871 1 -11108044.369 1  21814916.361    21814919.805        1242.389
       993.143
  -5194829.336 9  -4177843.114 8  23934433.842    23934440.077        3017.377
      2330.685
  -4643479.048 9  -3685642.509 9  22569118.573    22569122.738        2259.877
      1783.101
 88  3 25  3 44 29.0800000  0  3G 6G 9G11
   2557446.126 1 -11137944.407 1  21807613.555    21807618.367        1254.837
       981.262
  -5284896.016 9  -4248024.888 8  23917295.575    23917300.547        3000.687
      2333.941
  -4711530.516 9  -3738669.575 8  22556168.067    22556174.705        2273.003
      1772.457
 88  3 25  3 44 59.0800000  0  3G 6G 9G11
   2519389.883 9 -11167598.597 9  21800371.629    21800375.548        1261.671
       982.169
  -5374909.075 9  -4318164.873 8  23900166.030    23900171.724        3004.371
      2334.916
  -4779104.948 9  -3791324.939 8  22543309.108    22543314.900        2245.276
      1743.445
 88  3 25  3 45 29.0800000  0  3G 6G 9G11
   2481651.100 9 -11197005.433 9  21793190.437    21793193.348        1259.613
       992.596
  -5464866.733 9  -4388261.694 8  23883048.221    23883052.533        3001.380
      2325.981
  -4846200.975 9  -3843607.538 9  22530542.213    22530547.907        2229.487
      1735.671
 88  3 25  3 45 59.0800000  0  3G 6G 9G11
   2444232.300 9 -11226162.928 8  21786069.630    21786073.704        1261.049
       965.032
  -5554767.015 9  -4458313.791 9  23865940.405    23865945.016        3001.189
      2340.105
  -4912816.664 9  -3895515.829 8  22517865.157    22517870.348        2223.761
      1720.684
 88  3 25  3 46 29.0800000  0  3G 6G 9G11
   2407136.110 9 -11255069.030 9  21779010.133    21779014.205        1222.573
       967.020
  -5644607.747 9  -4528319.497 9  23848844.707    23848849.344        2993.111
      2336.526
  -4978950.571 9  -3947048.715 8  22505280.193    22505285.429        2196.114
      1714.122
 88  3 25  3 46 59.0800000  0  3G 6G 9G11
   2370363.993 9 -11283722.621 9  21772012.858    21772016.263        1229.765
       959.918
  -5734387.389 9  -4598277.604 8  23831759.840    23831763.950        2990.073
      2331.865
  -5044601.610 9  -3998205.334 8  22492786.865    22492792.200        2178.052
      1690.572
 88  3 25  3 47 29.0800000  0  3G 6G 9G11
   2333918.961 8 -11312121.340 9  21765076.494    21765081.607        1219.064
       941.544
  -5824103.503 9  -4668186.202 8  23814686.742    23814692.384        2997.066
      2320.432
  -5109767.710 9  -4048984.084 8  22480386.337    22480391.586        2165.221
      1681.257
 88  3 25  3 47 59.0800000  0  3G 6G 9G11
   2297802.957 9 -11340263.670 9  21758203.788    21758210.263        1199.399
       938.157
  -5913754.161 9  -4738043.788 8  23797627.512    23797632.172        2984.283
      2317.462
  -5174447.758 9  -4099384.070 7  22468078.069    22468083.404        2148.116
      1665.835
 88  3 25  3 48 29.0800000  0  3G 6G 9G11
   2262018.695 9 -11368147.497 9  21751395.412    21751400.105        1184.455
       923.020
  -6003337.386 9  -4807848.849 9  23780579.843    23780584.292        2987.010
      2317.785
  -5238639.862 8  -4149403.867 8  22455862.401    22455867.524        2130.780
      1669.464
 88  3 25  3 48 59.0800000  0  3G 6G 9G11
   2226567.772 9 -11395771.588 8  21744649.789    21744652.781        1174.559
       927.998
  -6092851.483 9  -4877600.050 8  23763546.139    23763550.033        2992.593
      2318.935
  -5302342.806 8  -4199042.507 8  22443740.375    22443745.710        2126.992
      1654.756
 88  3 25  3 49 29.0800000  0  3G 6G 9G11
   2191452.940 8 -11423133.784 9  21737967.343    21737972.342        1174.822
       907.902
  -6182294.095 9  -4947295.536 9  23746525.317    23746530.727        2995.415
      2337.862
  -5365554.898 9  -4248298.660 8  22431711.713    22431717.220        2104.919
      1637.295
 88  3 25  3 49 59.0800000  0  3G 6G 9G11
   2156676.432 9 -11450232.361 9  21731349.415    21731354.130        1162.302
       903.205
  -6271663.334 9  -5016933.838 9  23729519.186    23729524.335        2973.693
      2322.259
  -5428274.983 9  -4297171.419 8  22419776.119    22419781.140        2082.734
      1618.740
 88  3 25  3 50 29.0800000  0  3G 6G 9G11
   2122240.413 9 -11477065.602 8  21724796.516    21724800.449        1152.007
       886.023
  -6360956.976 9  -5086513.238 9  23712526.873    23712532.116        2967.553
      2324.222
  -5490501.579 8  -4345659.656 7  22407934.795    22407940.363        2065.350
      1629.341
 88  3 25  3 50 59.0800000  0  3G 6G 9G11
   2088147.395 9 -11503631.572 9  21718308.834    21718311.852        1130.445
       881.388
  -6450172.896 9  -5156032.083 9  23695549.321    23695554.769        2979.889
      2315.877
  -5552233.352 9  -4393762.319 8  22396187.475    22396194.250        2061.451
      1574.051
 88  3 25  3 51 29.0800000  0  3G 6G 9G11
   2054399.702 9 -11529928.473 9  21711887.124    21711891.909        1116.633
       866.444
  -6539309.147 9  -5225488.831 8  23678587.510    23678592.293        2971.237
      2314.653
  -5613468.552 8  -4441478.026 8  22384534.631    22384541.210        2025.654
      1569.105
 88  3 25  3 51 59.0800000  0  3G 6G 9G11
   2020999.336 9 -11555954.723 8  21705529.704    21705535.265        1111.577
       879.915
  -6628363.705 9  -5294881.941 9  23661640.301    23661645.868        2974.347
      2321.109
  -5674206.178 8  -4488806.023 9  22372977.261    22372982.926        2010.758
      1569.552
 88  3 25  3 52 29.0800000  0  3G 6G 9G11
   1987948.666 9 -11581708.482 9  21699240.486    21699246.691        1087.933
       857.533
  -6717334.372 9  -5364209.668 9  23644710.737    23644715.228        2957.888
      2309.253
  -5734445.118 9  -4535745.432 8  22361513.958    22361519.711        1988.812
      1559.212
 88  3 25  3 52 59.0800000  0  3G 6G 9G11
   1955249.814 9 -11607188.089 9  21693018.641    21693022.584        1085.820
       859.236
  -6806219.170 9  -5433470.505 8  23627796.474    23627801.803        2970.695
      2313.808
  -5794183.809 9  -4582295.043 8  22350145.405    22350152.113        1982.824
      1543.641
 88  3 25  3 53 29.0800000  0  3G 6G 9G11
   1922905.186 8 -11632391.692 9  21686863.599    21686868.041        1075.047
       839.314
  -6895015.841 9  -5502662.680 9  23610898.567    23610903.908        2951.891
      2302.164
  -5853420.831 9  -4628453.727 8  22338872.604    22338879.327        1965.838
      1523.694
 88  3 25  3 53 59.0800000  0  3G 6G 9G11
   1890917.215 9 -11657317.374 9  21680776.729    21680781.792        1063.436
       820.605
  -6983722.290 9  -5571784.537 9  23594018.043    23594022.889        2955.504
      2298.311
  -5912155.028 8  -4674220.602 9  22327696.034    22327702.097        1964.698
      1515.088
 88  3 25  3 54 29.0800000  0  3G 6G 9G11
   1859287.829 9 -11681963.641 9  21674758.466    21674763.493        1057.033
       810.371
  -7072336.430 9  -5640834.465 8  23577155.047    23577159.518        2957.242
      2300.275
  -5970385.600 9  -4719595.055 9  22316615.259    22316622.056        1909.332
      1498.609
 88  3 25  3 54 59.0800000  0  3G 6G 9G11
   1828020.018 9 -11706328.169 9  21668807.702    21668813.530        1049.154
       805.518
  -7160855.399 9  -5709810.231 9  23560310.414    23560315.931        2948.542
      2306.004
  -6028110.251 9  -4764575.275 8  22305631.481    22305636.715        1917.976
      1488.792
 88  3 25  3 55 29.0800000  0  3G 6G 9G11
   1797115.585 9 -11730409.531 9  21662926.362    21662931.248        1030.016
       798.136
  -7249277.620 9  -5778710.607 9  23543483.554    23543490.100        2945.384
      2291.389
  -6085328.309 9  -4809160.759 8  22294743.268    22294749.019        1897.769
      1479.247
 88  3 25  3 55 59.0800000  0  3G 6G 9G11
   1766577.009 9 -11754205.807 8  21657116.742    21657120.483        1006.523
       780.066
  -7337600.588 9  -5847533.657 9  23526675.562    23526681.943        2954.539
      2293.763
  -6142038.318 9  -4853350.347 8  22283950.803    22283957.339        1886.446
      1458.313
 88  3 25  3 56 29.0800000  0  3G 6G 9G11
   1736406.466 8 -11777715.308 9  21651374.952    21651379.421        1013.652
       779.712
  -7425822.053 9  -5916277.610 8  23509889.128    23509894.361        2943.845
      2298.702
  -6198239.500 9  -4897143.450 9  22273256.097    22273261.876        1868.599
      1451.745
 88  3 25  3 56 59.0800000  0  3G 6G 9G11
   1706605.941 9 -11800936.498 9  21645703.824    21645707.894         985.949
       764.855
  -7513940.385 9  -5984941.190 9  23493121.208    23493126.338        2943.463
      2290.929
  -6253930.587 9  -4940539.067 8  22262658.611    22262664.262        1848.233
      1446.538
 88  3 25  3 57 29.0800000  0  3G 6G 9G11
   1677177.742 9 -11823867.549 8  21640103.432    21640108.853         983.063
       761.692
  -7601952.984 9  -6053522.383 9  23476372.584    23476377.430        2941.660
      2286.996
  -6309110.745 9  -4983536.565 8  22252158.283    22252164.061        1837.188
      1428.903
 88  3 25  3 57 59.0800000  0  3G 6G 9G11
   1648124.055 9 -11846506.794 9  21634575.213    21634579.740         966.588
       757.032
  -7689857.858 9  -6122019.648 9  23459644.587    23459649.552        2930.847
      2286.927
  -6363778.804 8  -5026135.032 8  22241756.245    22241759.735        1812.228
      1416.706
 88  3 25  3 58 29.0800000  0  3G 6G 9G11
   1619447.309 9 -11868852.302 9  21629118.337    21629122.850         933.693
       730.809
  -7777652.491 9  -6190431.001 8  23442938.453    23442941.890        2928.399
      2280.428
  -6417933.476 9  -5068333.452 8  22231450.492    22231455.486        1796.351
      1407.789
 88  3 25  3 58 59.0800000  0  3G 6G 9G11
   1591149.821 9 -11890902.284 9  21623733.521    21623736.946         950.440
       729.933
  -7865334.636 9  -6258754.715 8  23426253.764    23426257.721        2909.787
      2276.171
  -6471573.798 7  -5110131.080 8  22221242.715    22221247.078        1779.661
      1389.377
 88  3 25  3 59 29.0800000  0  3G 6G 9G11
   1563233.430 9 -11912655.300 9  21618420.659    21618424.740         948.414
       720.134
  -7952902.360 9  -6326989.272 9  23409589.975    23409593.599        2929.404
      2283.678
  -6524698.853 8  -5151527.204 8  22211133.191    22211138.294        1778.497
      1369.195
 88  3 25  3 59 59.0800000  0  3G 6G 9G11
   1535700.415 9 -11934109.601 8  21613181.316    21613186.064         930.775
       712.547
  -8040353.136 9  -6395132.687 8  23392948.572    23392952.231        2916.637
      2267.373
  -6577307.566 8  -5192520.985 8  22201122.390    22201126.982        1748.505
      1359.756
 88  3 25  4  0 29.0800000  0  3G 6G 9G11
   1508553.367 9 -11955263.141 8  21608015.767    21608021.454         889.850
       696.578
  -8127684.446 9  -6463183.034 9  23376328.820    23376333.540        2897.666
      2261.991
  -6629398.839 8  -5233111.562 9  22191209.687    22191213.894        1731.448
      1357.202
 88  3 25  4  0 59.0800000  0  3G 6G 9G11
   1481794.258 9 -11976114.390 9  21602923.353    21602928.569         872.538
       688.966
  -8214894.248 9  -6531138.673 8  23359733.192    23359738.400        2904.508
      2265.223
  -6680971.653 9  -5273298.147 8  22181395.476    22181400.284        1716.855
      1350.858
 88  3 25  4  1 29.0800000  0  3G 6G 9G11
   1455425.342 9 -11996661.597 8  21597904.444    21597910.404         851.430
       672.953
  -8301980.074 9  -6598997.724 8  23343161.328    23343165.953        2916.342
      2271.704
  -6732025.326 8  -5313080.198 8  22171680.511    22171684.231        1687.685
      1319.180
 88  3 25  4  1 59.0800000  0  3G 6G 9G11
   1429448.384 8 -12016903.379 8  21592962.509    21592966.105         861.541
       658.916
  -8388940.115 9  -6666758.746 8  23326613.562    23326619.240        2883.113
      2264.931
  -6782559.229 8  -5352457.241 8  22162064.324    22162067.971        1667.079
      1302.272
 88  3 25  4  2 29.0800000  0  3G 6G 9G11
   1403865.730 9 -12036837.906 9  21588095.610    21588098.600         849.668
       667.721
  -8475771.878 9  -6734419.816 8  23310089.415    23310094.371        2894.309
      2266.621
  -6832572.200 8  -5391428.362 8  22152546.656    22152551.076        1653.698
      1284.302
 88  3 25  4  2 59.0800000  0  3G 6G 9G11
   1378679.901 9 -12056463.228 8  21583300.948    21583305.890         844.086
       648.259
  -8562472.652 9  -6801978.815 9  23293590.861    23293596.121        2881.406
      2255.604
  -6882063.063 9  -5429992.661 9  22143129.296    22143134.803        1646.425
      1278.846
 88  3 25  4  3 29.0800000  0  3G 6G 9G11
   1353892.758 9 -12075777.876 9  21578584.698    21578588.582         812.571
       638.479
  -8649040.502 9  -6869434.246 8  23277117.271    23277122.365        2883.567
      2248.172
  -6931031.169 9  -5468149.615 8  22133810.769    22133816.061        1618.770
      1261.330
 88  3 25  4  3 59.0800000  0  3G 6G 9G11
   1329506.933 9 -12094779.812 9  21573944.242    21573947.800         824.118
       626.238
  -8735472.562 9  -6936783.860 8  23260669.807    23260675.334        2890.904
      2251.397
  -6979475.621 9  -5505898.514 7  22124592.149    22124597.512        1615.270
      1247.280
 88  3 25  4  4 29.0800000  0  3G 6G 9G11
   1305523.796 9 -12113467.972 8  21569380.131    21569383.551         790.123
       627.052
  -8821767.033 9  -7004026.288 9  23244249.569    23244254.240        2882.937
      2242.542
  -7027395.980 9  -5543239.022 9  22115473.395    22115477.957        1582.997
      1231.771
 88  3 25  4  4 59.0800000  0  3G 6G 9G11
   1281945.770 9 -12131840.447 9  21564894.113    21564897.647         776.407
       605.558
  -8907921.649 9  -7071159.711 9  23227854.131    23227859.377        2868.711
      2244.705
  -7074791.461 8  -5580170.548 9  22106453.373    22106458.050        1591.737
      1234.816
 88  3 25  4  5 29.0800000  0  3G 6G 9G11
   1258775.183 9 -12149895.435 9  21560485.144    21560487.857         745.634
       596.001
  -8993933.383 9  -7138181.798 8  23211486.998    23211491.723        2867.244
      2234.402
  -7121661.184 8  -5616692.380 8  22097534.273    22097540.139        1543.859
      1208.152
 88  3 25  4  5 59.0800000  0  3G 6G 9G11
   1236014.118 9 -12167631.331 9  21556153.878    21556157.468         757.604
       583.804
  -9079800.228 9  -7205090.988 8  23195147.939    23195152.154        2863.464
      2239.342
  -7168004.433 9  -5652803.988 8  22088714.912    22088720.963        1538.110
      1198.757
 88  3 25  4  6 29.0800000  0  3G 6G 9G11
   1213664.610 9 -12185046.519 8  21551899.723    21551903.614         749.502
       584.928
  -9165519.553 9  -7271885.229 8  23178835.326    23178840.054        2857.706
      2225.560
  -7213820.241 9  -5688504.599 8  22079997.545    22080003.210        1526.978
      1189.200
 88  3 25  4  6 59.0800000  0  3G 6G 9G11
   1191728.814 9 -12202139.348 9  21547725.168    21547730.010         721.121
       564.640
  -9251089.506 9  -7338563.091 8  23162552.211    23162556.527        2861.454
      2224.746
  -7259108.530 8  -5723794.155 9  22071379.088    22071383.335        1503.852
      1171.379
 88  3 25  4  7 29.0800000  0  3G 6G 9G11
   1170208.945 9 -12218908.069 9  21543629.863    21543634.612         719.797
       561.490
  -9336506.860 9  -7405122.046 8  23146297.119    23146302.072        2851.542
      2225.753
  -7303868.111 8  -5758671.742 8  22062860.805    22062867.282        1501.731
      1148.525
 88  3 25  4  7 59.0800000  0  3G 6G 9G11
   1149106.858 9 -12235351.254 9  21539614.990    21539619.622         723.258
       546.204
  -9421769.822 9  -7471560.688 8  23130072.085    23130076.942        2849.883
      2191.397
  -7348098.666 7  -5793137.087 8  22054444.862    22054450.912        1473.565
      1140.621
 88  3 25  4  8 29.0800000  0  3G 6G 9G11
   1128424.878 9 -12251467.073 9  21535678.686    21535683.770         693.338
       532.702
  -9506875.475 9  -7537876.750 9  23113875.679    23113882.376        2827.611
      2207.167
  -7391799.396 9  -5827189.590 8  22046128.784    22046133.759        1466.963
      1124.123
 88  3 25  4  8 59.0800000  0  3G 6G 9G11
   1108165.246 9 -12267253.795 8  21531823.776    21531828.270         659.647
       526.301
  -9591821.509 9  -7604068.441 9  23097711.772    23097716.643        2843.209
      2214.630
  -7434969.284 8  -5860828.427 8  22037914.593    22037919.584        1440.815
      1123.458
 88  3 25  4  9 29.0800000  0  3G 6G 9G11
   1088329.797 9 -12282709.985 9  21528049.205    21528053.418         657.581
       509.549
  -9676605.209 9  -7670133.619 9  23081579.043    23081583.697        2843.847
      2201.482
  -7477607.924 8  -5894053.328 9  22029799.339    22029804.218        1398.287
      1103.960
 88  3 25  4  9 59.0800000  0  4G 6G 9G11G13
   1068921.142 9 -12297833.614 9  21524355.604    21524360.235         641.968
       493.524
  -9761223.861 9  -7736070.196 9  23065475.503    23065481.146        2826.487
      2187.420
  -7519714.584 8  -5926863.704 8  22021787.170    22021794.110        1396.374
      1093.930
 -19891486.032 9  25172695.370 8  25047878.280    25047882.992        3713.371
      2895.083
 88  3 25  4 10 29.0800000  0  4G 6G 9G11G13
   1049940.978 9 -12312623.344 9  21520743.989    21520748.920         650.205
       466.444
  -9845675.271 9  -7801876.463 9  23049405.829    23049410.521        2818.815
      2186.525
  -7561289.100 8  -5959259.402 8  22013874.759    22013881.339        1378.360
      1073.232
 -20002744.630 9  25085999.929 7  25026705.625    25026710.281        3709.998
      2899.681
 88  3 25  4 10 59.0800000  0  4G 6G 9G11G13
   1031391.499 8 -12327077.481 9  21517213.112    21517218.985         623.802
       477.014
  -9929956.933 9  -7867550.458 9  23033366.843    23033371.884        2812.380
      2194.044
  -7602330.577 9  -5991239.754 8  22006065.742    22006072.023        1358.806
      1063.999
 -20113789.603 9  24999471.464 9  25005574.487    25005580.077        3713.108
      2880.853
 88  3 25  4 11 29.0800000  0  4G 6G 9G11G13
   1013274.825 9 -12341194.360 9  21513766.099    21513771.572         595.286
       466.102
 -10014066.049 8  -7933089.996 9  23017361.584    23017366.821        2784.422
      2171.811
  -7642838.551 8  -6022804.385 8  21998357.378    21998363.586        1348.671
      1042.163
 -20224618.878 9  24913111.039 8  24984484.225    24984490.319        3699.320
      2898.395
 88  3 25  4 11 59.0800000  0  4G 6G 9G11G13
    995593.078 9 -12354972.357 8  21510401.585    21510406.801         588.547
       461.529
 -10098000.154 9  -7998493.152 9  23001389.519    23001394.832        2793.497
      2186.301
  -7682812.529 9  -6053952.942 7  21990750.361    21990756.226        1325.474
      1023.677
 -20335229.209 9  24826921.209 8  24963436.539    24963441.897        3700.149
      2867.885
 88  3 25  4 12 29.0800000  0  4G 6G 9G11G13
    978348.084 9 -12368410.011 9  21507120.613    21507125.720         560.565
       456.247
 -10181756.784 9  -8063758.026 9  22985451.668    22985456.414        2795.634
      2171.363
  -7722252.366 8  -6084685.249 9  21983244.890    21983250.986        1309.389
      1031.395
 -20445619.067 9  24740903.183 9  24942429.764    24942434.805        3673.371
      2860.255
 88  3 25  4 12 59.0800000  0  4G 6G 9G11G13
    961541.803 9 -12381505.810 9  21503922.277    21503927.120         550.223
       432.573
 -10265333.620 9  -8128882.812 9  22969546.788    22969552.464        2779.869
      2174.644
  -7761157.586 8  -6115000.978 9  21975842.835    21975847.427        1290.689
      1017.532
 -20555785.755 9  24655059.088 9  24921465.241    24921470.767        3672.534
      2862.821
 88  3 25  4 13 29.0800000  0  4G 6G 9G11G13
    945176.441 8 -12394258.040 9  21500808.371    21500811.569         545.877
       427.788
 -10348727.716 9  -8193865.187 9  22953677.390    22953681.996        2781.822
      2158.899
  -7799527.895 8  -6144899.905 7  21968540.388    21968546.022        1272.325
       979.106
 -20665726.947 8  24569390.674 7  24900543.683    24900548.649        3651.713
      2868.668
 88  3 25  4 13 59.0800000  0  4G 6G 9G11G13
    929253.826 9 -12406665.273 8  21497778.630    21497782.836         512.145
       395.582
 -10431936.753 9  -8258703.375 9  22937843.815    22937848.794        2778.664
      2157.563
  -7837362.519 9  -6174381.417 8  21961341.144    21961345.880        1246.719
       980.044
 -20775440.458 9  24483899.661 8  24879665.655    24879672.766        3671.338
      2835.592
 88  3 25  4 14 29.0800000  0  4G 6G 9G11G13
    913776.222 9 -12418725.750 9  21494832.884    21494837.451         523.038
       408.432
 -10514957.828 9  -8323395.096 8  22922045.227    22922050.257        2774.271
      2157.768
  -7874660.857 8  -6203445.034 8  21954243.625    21954249.473        1252.309
       953.213
 -20884923.581 9  24398588.230 8  24858831.616    24858837.485        3672.630
      2850.890
 88  3 25  4 14 59.0800000  0  4G 6G 9G11G13
    898745.730 9 -12430437.825 9  21491973.743    21491977.524         479.466
       385.516
 -10597788.356 9  -8387938.335 8  22906282.875    22906287.044        2750.188
      2141.624
  -7911422.881 8  -6232090.749 7  21947247.991    21947252.670        1207.971
       954.282
 -20994173.846 8  24313458.190 7  24838041.526    24838047.283        3646.793
      2849.387
 88  3 25  4 15 29.0800000  0  4G 6G 9G11G13
    884164.125 8 -12441800.113 9  21489198.296    21489202.093         472.816
       371.392
 -10680425.804 9  -8452331.122 9  22890557.002    22890561.962        2750.523
      2152.343
  -7947648.597 9  -6260318.562 7  21940353.507    21940358.854        1204.072
       924.984
 -21103188.918 8  24228511.455 9  24817296.301    24817302.630        3641.713
      2839.954
 88  3 25  4 15 59.0800000  0  4G 6G 9G11G13
    870033.527 8 -12452810.986 8  21486509.156    21486512.628         464.730
       355.503
 -10762867.493 9  -8516571.366 8  22874868.914    22874873.880        2742.453
      2139.288
  -7983337.470 9  -6288128.048 7  21933562.479    21933567.894        1201.680
       897.370
 -21211966.997 9  24143749.345 8  24796598.091    24796603.597        3623.922
      2821.344
 88  3 25  4 16 29.0800000  0  4G 6G 9G11G13
    856355.740 8 -12463469.000 8  21483906.984    21483909.798         447.712
       342.951
 -10845111.012 9  -8580657.203 8  22859218.571    22859223.976        2734.112
      2126.692
  -8018488.972 8  -6315518.823 8  21926873.651    21926879.304        1170.468
       915.676
 -21320505.358 7  24059174.058 9  24775941.716    24775949.319        3610.342
      2822.680
 88  3 25  4 16 59.0800000  0  4G 6G 9G11G13
    843132.508 9 -12473772.814 9  21481390.198    21481393.344         431.883
       332.232
 -10927153.597 9  -8644586.444 9  22843606.256    22843611.327        2734.774
      2143.519
  -8053103.040 8  -6342490.807 8  21920287.832    21920291.653        1133.922
       895.723
 -21428801.750 8  23974787.330 9  24755334.581    24755341.344        3622.615
      2812.259
 88  3 25  4 17 29.0800000  0  4G 6G 9G11G13
    830365.688 9 -12483720.982 9  21478960.492    21478965.434         424.738
       320.358
 -11008992.812 9  -8708357.237 9  22828033.547    22828037.096        2722.469
      2126.792
  -8087179.815 9  -6369044.121 9  21913802.060    21913807.624        1127.319
       871.670
 -21536854.036 8  23890590.767 8  24734773.087    24734779.373        3601.985
      2817.740
 88  3 25  4 17 59.0800000  0  4G 6G 9G11G13
    818057.685 9 -12493311.628 9  21476618.526    21476623.659         406.365
       323.757
 -11090625.777 9  -8771967.313 8  22812499.565    22812503.092        2723.115
      2120.373
  -8120718.587 8  -6395178.202 9  21907419.794    21907424.942        1122.239
       869.774
 -21644659.204 8  23806586.834 9  24714257.550    24714265.186        3602.934
      2797.085
 88  3 25  4 18 29.0800000  0  4G 6G 9G11G13
    806209.759 9 -12502543.778 9  21474363.284    21474368.456         388.702
       306.688
 -11172050.246 9  -8835414.911 9  22797005.236    22797008.276        2707.142
      2108.542
  -8153719.828 8  -6420893.445 9  21901140.590    21901145.197        1084.249
       861.324
 -21752215.567 9  23722776.731 8  24693789.827    24693798.102        3592.958
      2795.762
 88  3 25  4 18 59.0800000  0  4G 6G 9G11G13
    794824.097 9 -12511415.733 8  21472196.994    21472202.033         355.465
       298.137
 -11253263.363 9  -8898697.835 8  22781550.934    22781554.483        2703.227
      2109.194
  -8186182.902 8  -6446189.331 7  21894962.708    21894967.386        1079.664
       843.981
 -21859521.268 9  23639161.947 8  24673370.479    24673378.289        3561.890
      2782.775
 88  3 25  4 19 29.0800000  0  4G 6G 9G11G13
    783902.694 9 -12519925.930 9  21470119.043    21470122.741         364.755
       276.774
 -11334262.113 9  -8961813.709 8  22766136.279    22766140.488        2707.015
      2095.406
  -8218107.613 8  -6471065.719 9  21888887.549    21888893.029        1049.736
       822.034
 -21966573.623 9  23555744.558 8  24652999.765    24653006.294        3573.205
      2786.304
 88  3 25  4 19 59.0800000  0  4G 6G 9G11G13
    773447.294 8 -12528072.984 9  21468129.046    21468134.240         346.023
       257.996
 -11415044.249 9  -9024760.812 9  22750763.851    22750768.269        2676.792
      2090.242
  -8249494.096 9  -6495522.690 8  21882915.098    21882920.190        1048.141
       818.728
 -22073370.372 9  23472526.342 8  24632677.058    24632682.706        3563.245
      2774.560
 88  3 25  4 20 29.0800000  0  4G 6G 9G11G13
    763459.503 9 -12535855.681 8  21466228.210    21466233.656         329.181
       250.471
 -11495607.418 9  -9087537.294 9  22735433.378    22735437.685        2673.889
      2087.515
  -8280342.461 9  -6519560.365 9  21877045.161    21877049.456        1003.629
       805.928
 -22179909.614 9  23389508.765 7  24612402.567    24612408.673        3550.120
      2761.418
 88  3 25  4 20 59.0800000  0  4G 6G 9G11G13
    753941.188 9 -12543272.554 9  21464417.797    21464422.047         318.225
       256.642
 -11575948.490 9  -9150140.717 9  22720144.428    22720149.260        2681.800
      2083.643
  -8310652.760 9  -6543178.766 9  21871276.910    21871282.690        1003.198
       781.738
 -22286188.656 8  23306693.938 7  24592179.174    24592185.360        3551.260
      2770.540
 88  3 25  4 21 29.0800000  0  4G 6G 9G11G13
    744894.164 8 -12550322.188 9  21462695.835    21462701.019         297.236
       223.572
 -11656065.392 9  -9212569.442 9  22704898.550    22704904.185        2669.982
      2086.707
  -8340424.824 8  -6566377.767 9  21865610.690    21865616.813         987.146
       776.052
 -22392205.005 8  23224083.853 8  24572004.181    24572011.394        3521.061
      2735.935
 88  3 25  4 21 59.0800000  0  4G 6G 9G11G13
    736320.036 9 -12557003.337 8  21461063.536    21461069.309         286.279
       214.811
 -11735954.920 9  -9274820.999 9  22689696.264    22689700.962        2659.671
      2083.687
  -8369658.939 8  -6589157.584 8  21860048.942    21860054.293         963.765
       754.720
 -22497957.149 8  23141679.625 8  24551880.822    24551887.059        3514.012
      2749.668
 88  3 25  4 22 29.0800000  0  4G 6G 9G11G13
    728220.800 9 -12563314.425 8  21459522.905    21459527.617         278.911
       210.442
 -11815614.425 9  -9336893.317 9  22674537.677    22674543.299        2650.237
      2054.457
  -8398354.745 8  -6611517.935 9  21854588.143    21854592.662         963.996
       748.674
 -22603442.812 9  23059483.037 8  24531808.187    24531813.250        3517.505
      2745.449
 88  3 25  4 22 59.0800000  0  4G 6G 9G11G13
    720598.093 8 -12569254.200 9  21458072.798    21458076.603         257.827
       199.170
 -11895041.299 9  -9398784.368 8  22659423.184    22659428.331        2645.636
      2054.041
  -8426512.425 9  -6633458.965 9  21849230.233    21849234.453         939.172
       731.244
 -22708660.106 8  22977495.560 9  24511785.376    24511792.300        3489.100
      2732.437
 88  3 25  4 23 29.0800000  0  4G 6G 9G11G13
    713453.601 9 -12574821.335 9  21456714.081    21456718.308         225.523
       176.235
 -11974233.102 9  -9460492.240 9  22644353.875    22644358.058        2647.638
      2065.773
  -8454132.107 9  -6654980.795 8  21843973.363    21843978.730         908.758
       723.974
 -22813606.492 9  22895719.202 9  24491814.611    24491821.277        3486.524
      2730.915
 88  3 25  4 23 59.0800000  0  4G 6G 9G11G13
    706789.364 9 -12580014.244 9  21455446.399    21455449.558         228.250
       161.608
 -12053186.633 9  -9522014.453 8  22629329.695    22629334.519        2636.490
      2046.901
  -8481213.675 9  -6676083.295 9  21838819.983    21838825.434         894.523
       706.097
 -22918279.281 9  22814156.026 9  24471895.408    24471902.946        3493.725
      2711.049
 88  3 25  4 24 29.0800000  0  4G 6G 9G11G13
    700607.137 9 -12584831.564 9  21454268.963    21454273.494         206.831
       156.041
 -12131898.960 9  -9583348.701 8  22614350.349    22614354.961        2622.854
      2041.172
  -8507756.977 9  -6696766.377 8  21833769.633    21833773.982         883.064
       684.566
 -23022675.796 9  22732808.142 8  24452029.188    24452036.624        3481.508
      2702.841
 88  3 25  4 24 59.0800000  0  4G 6G 9G11G13
    694908.848 8 -12589271.787 9  21453183.115    21453188.697         168.115
       150.995
 -12210367.667 9  -9644493.131 8  22599418.330    22599423.448        2610.422
      2027.607
  -8533762.394 8  -6717030.320 8  21828820.411    21828826.191         868.041
       675.438
 -23126794.760 8  22651676.549 9  24432215.828    24432223.094        3468.933
      2705.979
 88  3 25  4 25 29.0800000  0  4G 6G 9G11G13
    689695.941 9 -12593333.802 9  21452192.036    21452196.933         160.308
       145.148
 -12288589.823 9  -9705445.427 9  22584534.328    22584538.423        2603.500
      2021.294
  -8559230.166 8  -6736875.308 8  21823973.005    21823979.313         840.202
       649.869
 -23230633.775 9  22570763.061 7  24412457.015    24412463.228        3461.261
      2693.713
 88  3 25  4 25 59.0800000  0  4G 6G 9G11G13
    684969.908 9 -12597016.434 8  21451292.390    21451297.211         155.755
       117.714
 -12366562.934 9  -9766203.675 8  22569695.938    22569701.250        2604.560
      2024.762
  -8584160.403 8  -6756301.454 8  21819230.191    21819235.372         798.464
       644.313
 -23334191.327 9  22490068.938 9  24392749.387    24392757.113        3434.069
      2691.358
 88  3 25  4 26 29.0800000  0  4G 6G 9G11G13
    680732.611 9 -12600318.241 8  21450486.723    21450491.354         123.419
        90.541
 -12444284.176 9  -9826765.659 8  22554906.014    22554909.910        2582.774
      2014.776
  -8608553.215 8  -6775308.826 8  21814587.570    21814593.707         811.431
       628.617
 -23437464.546 9  22409596.334 8  24373098.240    24373103.982        3428.941
      2683.149
 88  3 25  4 26 59.0800000  0  4G 6G 9G11G13
    676985.983 8 -12603237.690 9  21449773.757    21449777.466          95.006
        95.624
 -12521750.607 9  -9887129.092 8  22540165.250    22540168.410        2575.231
      2003.952
  -8632408.772 9  -6793897.553 8  21810047.790    21810053.784         771.575
       601.382
 -23540451.433 9  22329346.846 9  24353499.790    24353506.111        3433.056
      2668.646
 88  3 25  4 27 29.0800000  0  4G 6G 9G11G13
    673731.413 9 -12605773.717 9  21449154.128    21449158.901         100.373
        92.324
 -12598959.399 9  -9947291.752 8  22525472.324    22525477.224        2579.752
      1988.833
  -8655727.514 8  -6812067.997 8  21805611.430    21805616.149         770.044
       596.026
 -23643149.631 9  22249322.308 9  24333957.923    24333963.907        3408.774
      2666.322
 88  3 25  4 27 59.0800000  0  4G 6G 9G11G13
    670970.740 9 -12607924.894 9  21448628.972    21448632.686          86.594
        70.526
 -12675907.625 9 -10007251.388 8  22510829.848    22510832.557        2562.695
      1998.086
  -8678509.526 8  -6829820.192 8  21801274.166    21801280.905         756.758
       596.486
 -23745556.947 8  22169524.464 9  24314470.354    24314476.518        3410.983
      2660.916
 88  3 25  4 28 29.0800000  0  4G 6G 9G11G13
    668705.398 8 -12609690.101 9  21448197.897    21448202.785          77.790
        55.328
 -12752592.950 9 -10067006.179 9  22496237.030    22496240.746        2544.904
      1976.083
  -8700754.970 8  -6847154.296 7  21797041.845    21797047.483         717.915
       565.467
 -23847671.186 9  22089954.945 8  24295038.066    24295044.863        3392.945
      2644.518
 88  3 25  4 28 59.0800000  0  4G 6G 9G11G13
    666937.214 9 -12611067.909 9  21447861.742    21447865.906          54.441
        50.941
 -12829012.195 9 -10126553.626 8  22481694.824    22481699.606        2541.762
      1984.018
  -8722464.508 9  -6864070.789 8  21792910.817    21792915.294         719.056
       569.425
 -23949490.312 9  22010615.381 9  24275663.165    24275669.656        3397.060
      2636.869
 88  3 25  4 29 29.0800000  0  4G 6G 9G11G13
    665667.481 8 -12612057.312 8  21447619.601    21447623.976          42.982
        39.159
 -12905162.651 9 -10185891.629 8  22467203.344    22467207.468        2540.718
      1974.989
  -8743638.397 8  -6880569.921 7  21788881.842    21788886.578         682.709
       545.135
 -24051012.750 9  21931507.030 8  24256344.601    24256350.693        3385.585
      2639.727
 88  3 25  4 29 59.0800000  0  4G 6G 9G11G13
    664897.962 9 -12612656.941 9  21447473.689    21447477.413          22.958
        18.095
 -12981041.642 9 -10245018.096 9  22452764.353    22452768.791        2522.624
      1956.615
  -8764276.610 8  -6896651.620 7  21784954.813    21784959.462         674.798
       533.366
 -24152236.147 9  21852631.689 8  24237082.098    24237088.123        3377.961
      2617.283
 88  3 25  4 30 29.0800000  0  4G 6G 9G11G13
    664630.338 9 -12612865.475 9  21447422.874    21447426.806           8.979
        12.073
 -13056646.001 9 -10303930.559 9  22438376.293    22438381.842        2525.112
      1967.856
  -8784379.253 8  -6912316.000 7  21781128.463    21781134.743         646.186
       510.090
 -24253157.903 9  21773991.400 8  24217877.126    24217882.488        3359.389
      2634.744
 88  3 25  4 30 59.0800000  0  4G 6G 9G11G13
    664866.270 9 -12612681.648 9  21447467.517    21447471.902         -20.478
       -14.360
 -13131972.565 9 -10362626.574 9  22424042.993    22424047.740        2507.632
      1947.754
  -8803947.077 8  -6927563.645 7  21777404.635    21777409.782         662.541
       500.110
 -24353775.972 9  21695587.730 9  24198730.924    24198735.507        3355.187
      2611.554
 88  3 25  4 31 29.0800000  0  4G 6G 9G11G13
    665607.050 8 -12612104.431 9  21447608.506    21447611.564         -28.445
       -28.155
 -13207019.308 9 -10421104.526 9  22409762.227    22409765.695        2496.221
      1952.483
  -8822980.438 8  -6942394.815 8  21773783.191    21773788.511         633.148
       486.831
 -24454088.289 9  21617422.324 8  24179641.495    24179646.665        3332.978
      2606.036
 88  3 25  4 31 59.0800000  0  4G 6G 9G11G13
    666854.405 9 -12611132.468 9  21447844.826    21447850.117         -53.037
       -37.680
 -13281782.957 9 -10479361.903 9  22395534.929    22395540.207        2477.019
      1942.093
  -8841479.635 8  -6956809.761 8  21770263.111    21770268.747         634.432
       493.505
 -24554093.227 9  21539496.418 8  24160610.402    24160615.945        3325.825
      2601.537
 88  3 25  4 32 29.0800000  0  4G 6G 9G11G13
    668609.839 8 -12609764.603 9  21448180.942    21448183.570         -74.760
       -62.623
 -13356260.403 9 -10537396.254 9  22381362.747    22381366.390        2493.079
      1925.534
  -8859445.205 8  -6970808.894 8  21766843.924    21766850.035         578.994
       472.825
 -24653788.092 9  21461812.123 8  24141639.636    24141645.083        3325.618
      2582.374
 88  3 25  4 32 59.0800000  0  4G 6G 9G11G13
    670874.726 8 -12607999.753 9  21448609.964    21448614.567         -94.743
       -58.720
 -13430448.903 9 -10595205.462 9  22367245.234    22367249.073        2462.162
      1920.842
  -8876877.192 8  -6984392.247 7  21763526.775    21763534.142         577.463
       440.737
 -24753170.825 9  21384371.025 8  24122727.677    24122733.648        3320.961
      2586.177
 88  3 25  4 33 29.0800000  0  4G 6G 9G11G13
    673650.388 9 -12605836.919 8  21449138.641    21449142.677        -105.549
       -74.255
 -13504346.181 9 -10652787.730 8  22353182.696    22353186.656        2470.073
      1922.010
  -8893776.919 8  -6997560.834 8  21760310.883    21760317.477         568.930
       434.897
 -24852240.265 9  21307174.114 9  24103874.417    24103881.473        3292.540
      2577.962
 88  3 25  4 33 59.0800000  0  4G 6G 9G11G13
    676938.394 9 -12603274.841 9  21449764.481    21449769.085        -121.441
       -87.969
 -13577949.250 9 -10710140.748 9  22339176.225    22339180.902        2449.850
      1914.616
  -8910144.629 8  -7010314.880 7  21757195.843    21757202.920         546.523
       400.795
 -24950993.731 9  21230223.355 9  24085083.095    24085088.343        3283.274
      2562.558
 88  3 25  4 34 29.0800000  0  4G 6G 9G11G13
    680740.225 9 -12600312.387 8  21450487.448    21450492.061        -133.467
      -100.197
 -13651254.681 9 -10767261.851 9  22325226.107    22325232.101        2431.756
      1905.886
  -8925980.532 8  -7022654.537 8  21754182.448    21754188.672         495.088
       396.483
 -25049429.542 9  21153520.184 8  24066350.419    24066357.230        3270.993
      2547.415
 88  3 25  4 34 59.0800000  0  4G 6G 9G11G13
    685057.192 8 -12596948.531 8  21451308.768    21451313.865        -131.992
      -123.679
 -13724260.120 9 -10824149.188 8  22311334.275    22311339.524        2433.486
      1902.300
  -8941285.440 8  -7034580.427 7  21751269.079    21751275.870         523.509
       376.207
 -25147545.864 9  21077065.923 8  24047680.666    24047686.435        3260.595
      2552.585
 88  3 25  4 35 29.0800000  0  4G 6G 9G11G13
    689890.873 8 -12593182.031 9  21452229.475    21452233.261        -158.706
      -131.440
 -13796962.519 9 -10880800.390 9  22297500.318    22297505.485        2427.833
      1883.348
  -8956059.575 8  -7046092.722 8  21748457.974    21748464.525         475.032
       364.755
 -25245339.500 9  21000863.122 9  24029071.480    24029077.217        3251.201
      2547.770
 88  3 25  4 35 59.0800000  0  4G 6G 9G11G13
    695242.439 8 -12589011.992 9  21453245.502    21453251.928        -185.300
      -156.413
 -13869358.947 9 -10937213.180 9  22283722.674    22283727.216        2400.489
      1889.773
  -8970303.821 8  -7057192.110 9  21745748.552    21745754.258         470.336
       354.987
 -25342809.458 9  20924912.527 9  24010522.934    24010529.345        3237.732
      2522.859
 88  3 25  4 36 29.0800000  0  4G 6G 9G11G13
    701113.151 9 -12584437.413 9  21454364.097    21454368.356        -201.297
      -162.845
 -13941446.764 9 -10993385.488 9  22270005.118    22270008.707        2400.847
      1871.461
  -8984019.205 8  -7067879.409 8  21743138.220    21743144.331         428.183
       350.613
 -25439954.097 9  20849215.440 8  23992036.168    23992043.812        3235.404
      2531.272
 88  3 25  4 36 59.0800000  0  4G 6G 9G11G13
    707504.435 9 -12579457.185 9  21455580.804    21455586.339        -226.336
      -158.650
 -14013222.935 9 -11049314.949 9  22256347.018    22256351.058        2387.993
      1871.095
  -8997205.922 8  -7078154.755 8  21740629.228    21740635.051         434.738
       344.206
 -25536771.302 9  20773773.489 9  23973613.718    23973619.827        3228.243
      2514.967
 88  3 25  4 37 29.0800000  0  4G 6G 9G11G13
    714417.539 8 -12574070.362 9  21456896.747    21456900.328        -249.709
      -182.797
 -14084684.884 9 -11104999.566 8  22242748.195    22242751.913        2367.594
      1857.412
  -9009864.830 8  -7088018.831 7  21738219.678    21738226.789         404.300
       318.506
 -25633259.214 9  20698588.128 9  23955252.458    23955259.065        3214.264
      2505.789
 88  3 25  4 37 59.0800000  0  4G 6G 9G11G13
    721853.865 9 -12568275.833 8  21458312.012    21458316.458        -269.733
      -204.595
 -14155829.242 9 -11160436.702 9  22229210.281    22229214.641        2366.518
      1839.603
  -9021996.110 8  -7097471.772 7  21735912.146    21735917.010         406.812
       313.566
 -25729415.315 9  20623661.300 9  23936954.595    23936960.034        3189.966
      2498.277
 88  3 25  4 38 29.0800000  0  4G 6G 9G11G13
    729814.585 8 -12562072.676 9  21459826.691    21459830.684        -282.252
      -212.623
 -14226653.553 9 -11215624.445 9  22215732.207    22215737.070        2347.076
      1835.160
  -9033601.124 9  -7106514.615 8  21733703.646    21733708.708         384.444
       295.291
 -25825237.634 9  20548994.570 8  23918718.847    23918726.523        3185.237
      2475.988
 88  3 25  4 38 59.0800000  0  4G 6G 9G11G13
    738300.856 9 -12555459.999 9  21461441.175    21461446.127        -271.782
      -225.467
 -14297154.658 9 -11270560.346 9  22202316.138    22202320.349        2353.416
      1830.382
  -9044680.798 8  -7115148.122 8  21731594.190    21731600.285         362.610
       291.768
 -25920724.566 9  20474589.183 8  23900549.714    23900555.297        3187.350
      2467.146
 88  3 25  4 39 29.0800000  0  4G 6G 9G11G13
    747313.956 9 -12548436.811 9  21463155.963    21463161.529        -302.268
      -239.933
 -14367330.500 9 -11325242.810 9  22188962.164    22188966.753        2336.710
      1813.480
  -9055235.547 7  -7123372.597 8  21729586.506    21729591.944         348.408
       294.832
 -26015874.210 9  20400446.632 9  23882442.414    23882448.981        3178.658
      2451.189
 88  3 25  4 39 59.0800000  0  4G 6G 9G11G13
    756854.768 9 -12541002.412 9  21464971.646    21464976.250        -325.649
      -248.297
 -14437177.455 9 -11379668.981 8  22175671.148    22175674.916        2320.354
      1811.579
  -9065266.426 9  -7131188.842 8  21727678.034    21727682.353         325.537
       251.155
 -26110685.687 9  20326567.564 9  23864400.375    23864407.348        3148.388
      2451.947
 88  3 25  4 40 29.0800000  0  4G 6G 9G11G13
    766924.624 9 -12533155.783 9  21466887.968    21466892.723        -353.774
      -265.397
 -14506692.950 9 -11433836.880 8  22162442.432    22162446.440        2313.074
      1799.885
  -9074773.950 9  -7138597.300 8  21725868.400    21725873.707         321.454
       254.013
 -26205156.409 9  20252954.055 8  23846422.069    23846429.437        3129.720
      2453.767
 88  3 25  4 40 59.0800000  0  4G 6G 9G11G13
    777524.674 9 -12524896.012 9  21468905.863    21468910.481        -365.736
      -279.067
 -14575874.319 9 -11487744.437 8  22149277.032    22149282.243        2316.543
      1796.610
  -9083758.933 9  -7145598.572 8  21724158.183    21724163.561         281.056
       219.061
 -26299284.389 9  20179607.598 8  23828510.422    23828517.401        3138.491
      2446.317
 88  3 25  4 41 29.0800000  0  4G 6G 9G11G13
    788656.115 9 -12516222.166 9  21471023.452    21471028.354        -371.637
      -294.546
 -14644718.306 9 -11541389.082 9  22136177.300    22136180.654        2298.752
      1799.077
  -9092222.722 8  -7152193.720 7  21722548.247    21722553.326         270.227
       217.333
 -26393067.688 8  20106529.730 9  23810663.748    23810670.759        3129.544
      2411.265
 88  3 25  4 41 59.0800000  0  4G 6G 9G11G13
    800319.874 9 -12507133.546 9  21473243.494    21473248.050        -400.783
      -321.284
 -14713222.497 9 -11594768.957 8  22123141.287    22123145.540        2273.529
      1768.866
  -9100166.156 8  -7158383.378 8  21721036.716    21721041.110         240.100
       211.244
 -26486505.253 8  20033721.264 8  23792883.363    23792890.725        3110.007
      2419.436
 88  3 25  4 42 29.0800000  0  4G 6G 9G11G13
    812516.778 9 -12497629.469 9  21475564.725    21475568.926        -413.454
      -326.969
 -14781384.065 9 -11647881.845 8  22110170.696    22110175.271        2274.574
      1764.112
  -9107590.131 9  -7164168.294 8  21719624.014    21719629.135         241.424
       190.055
 -26579595.343 9  19961183.560 8  23775169.661    23775175.359        3101.020
      2412.986
 88  3 25  4 42 59.0800000  0  4G 6G 9G11G13
    825247.569 8 -12487709.384 9  21477987.056    21477990.866        -434.068
      -337.738
 -14849200.630 9 -11700725.917 8  22097265.279    22097268.789        2264.000
      1762.875
  -9114495.892 9  -7169549.406 8  21718310.046    21718315.439         222.764
       175.589
 -26672336.229 9  19888917.922 8  23757522.117    23757528.373        3086.881
      2403.430
 88  3 25  4 43 29.0800000  0  4G 6G 9G11G13
    838513.274 9 -12477372.482 9  21480511.330    21480515.328        -457.162
      -343.436
 -14916669.198 9 -11753298.828 8  22084426.488    22084430.784        2243.131
      1739.630
  -9120884.514 8  -7174527.538 8  21717092.883    21717097.904         207.572
       168.884
 -26764726.567 9  19816925.507 8  23739940.865    23739948.042        3074.234
      2399.745
 88  3 25  4 43 59.0800000  0  4G 6G 9G11G13
    852314.845 8 -12466618.025 9  21483138.811    21483142.246        -459.259
      -370.938
 -14983787.105 9 -11805598.487 8  22071653.982    22071658.693        2234.223
      1739.947
  -9126756.894 8  -7179103.416 8  21715977.294    21715980.956         182.501
       149.187
 -26856764.563 8  19745207.594 8  23722425.891    23722432.585        3053.230
      2384.285
 88  3 25  4 44 29.0800000  0  4G 6G 9G11G13
    866653.361 9 -12455445.158 9  21485866.660    21485870.543        -485.702
      -387.784
 -15050551.349 9 -11857622.560 8  22058949.597    22058953.756        2230.906
      1732.701
  -9132114.341 8  -7183278.026 8  21714957.327    21714962.177         177.637
       148.957
 -26948448.186 9  19673765.834 8  23704979.026    23704985.734        3043.597
      2373.268
 88  3 25  4 44 59.0800000  0  4G 6G 9G11G13
    881529.867 9 -12443853.085 9  21488697.799    21488701.296        -505.662
      -403.380
 -15116959.142 9 -11909368.893 8  22046312.521    22046316.947        2212.206
      1734.267
  -9136957.438 8  -7187051.855 8  21714034.913    21714040.608         158.506
       137.002
 -27039775.406 9  19602601.779 8  23687600.795    23687606.250        3058.995
      2379.301
 88  3 25  4 45 29.0800000  0  4G 6G 9G11G13
    896945.073 8 -12431841.247 9  21491630.844    21491634.867        -521.427
      -407.108
 -15183007.573 9 -11960835.202 8  22033744.443    22033747.887        2193.801
      1704.895
  -9141287.344 9  -7190425.798 9  21713210.986    21713215.707         130.756
        99.731
 -27130745.061 8  19531716.379 9  23670289.728    23670295.674        3012.289
      2354.881
 88  3 25  4 45 59.0800000  0  4G 6G 9G11G13
    912900.298 9 -12419408.627 9  21494666.201    21494671.525        -528.102
      -422.798
 -15248693.803 9 -12012019.268 8  22021244.535    22021248.337        2188.147
      1704.105
  -9145105.134 8  -7193400.676 8  21712484.428    21712490.091         115.198
        84.023
 -27221355.218 9  19461111.082 9  23653047.611    23653052.923        3019.402
      2350.339
 88  3 25  4 46 29.0800000  0  4G 6G 9G11G13
    929396.413 8 -12406554.523 8  21497805.367    21497810.903        -556.714
      -437.836
 -15314014.715 9 -12062918.667 8  22008813.585    22008818.438        2174.296
      1692.852
  -9148411.928 9  -7195977.389 8  21711855.934    21711860.683         106.761
        76.865
 -27311604.319 9  19390787.154 9  23635874.374    23635879.277        3002.879
      2343.839
 88  3 25  4 46 59.0800000  0  4G 6G 9G11G13
    946434.372 8 -12393278.206 9  21501047.677    21501052.852        -568.213
      -450.872
 -15378967.379 9 -12113531.130 9  21996453.831    21996457.556        2160.979
      1685.414
  -9151208.066 8  -7198156.193 8  21711322.856    21711327.979          85.102
        73.534
 -27401490.788 9  19320745.764 9  23618769.240    23618774.660        3006.994
      2329.349
 88  3 25  4 47 29.0800000  0  4G 6G 9G11G13
    964015.240 7 -12379578.846 9  21504392.577    21504398.913        -598.946
      -460.665
 -15443549.014 9 -12163854.464 9  21984165.158    21984168.781        2154.041
      1673.944
  -9153494.932 8  -7199938.141 8  21710888.323    21710893.185          68.827
        55.787
 -27491012.281 9  19250988.789 8  23601733.690    23601737.783        2983.502
      2311.304
 88  3 25  4 47 59.0800000  0  4G 6G 9G11G13
    982139.671 9 -12365455.917 9  21507841.195    21507847.413        -617.207
      -466.537
 -15507756.791 9 -12213886.486 8  21971946.357    21971950.140        2122.311
      1669.905
  -9155273.946 7  -7201324.377 8  21710549.517    21710554.425          49.034
        48.057
 -27580167.039 9  19181517.569 9  23584768.196    23584773.180        2968.590
      2321.625
 88  3 25  4 48 29.0800000  0  4G 6G 9G11G13
   1000808.677 8 -12350908.651 8  21511394.986    21511399.388        -628.172
      -497.221
 -15571587.523 9 -12263624.719 8  21959799.272    21959803.813        2121.705
      1663.853
  -9156545.944 8  -7202315.533 8  21710307.521    21710312.282          36.403
        15.827
 -27668953.977 9  19112332.971 8  23567871.614    23567876.722        2958.295
      2305.221
 88  3 25  4 48 59.0800000  0  4G 6G 9G11G13
   1020023.149 8 -12335936.355 9  21515050.493    21515055.650        -664.112
      -506.684
 -15635038.451 9 -12313066.986 9  21947725.023    21947728.073        2123.842
      1638.177
  -9157311.720 8  -7202912.232 7  21710161.462    21710167.068          25.773
        11.477
 -27757371.316 9  19043436.359 9  23551047.684    23551052.296        2948.128
      2281.627
 88  3 25  4 49 29.0800000  0  4G 6G 9G11G13
   1039783.999 8 -12320538.293 8  21518811.825    21518815.572        -658.243
      -515.893
 -15698106.519 9 -12362210.928 9  21935723.139    21935727.214        2099.273
      1636.195
  -9157572.691 8  -7203115.578 7  21710110.840    21710117.038          -1.491
        16.498
 -27845417.055 9  18974829.324 9  23534292.435    23534297.219        2924.252
      2287.070
 88  3 25  4 49 59.0800000  0  4G 6G 9G11G13
   1060092.128 9 -12304713.790 9  21522675.810    21522680.290        -683.347
      -522.293
 -15760788.914 9 -12411054.336 9  21923795.956    21923798.570        2080.207
      1615.671
  -9157329.836 8  -7202926.330 8  21710156.870    21710162.879         -21.467
       -13.105
 -27933089.922 9  18906512.803 9  23517608.616    23517613.524        2918.487
      2290.065
 88  3 25  4 50 29.0800000  0  4G 6G 9G11G13
   1080948.090 9 -12288462.388 8  21526644.692    21526649.475        -706.018
      -548.485
 -15823082.812 9 -12459595.018 9  21911941.350    21911944.582        2078.006
      1624.687
  -9156584.700 8  -7202345.695 8  21710299.645    21710305.654         -30.063
       -19.865
 -28020388.229 9  18838488.174 8  23500996.288    23501001.378        2903.367
      2265.005
 88  3 25  4 50 59.0800000  0  4G 6G 9G11G13
   1102352.690 9 -12271783.484 9  21530717.110    21530722.564        -723.944
      -562.615
 -15884985.447 9 -12507830.821 8  21900160.808    21900165.097        2069.513
      1606.263
  -9155338.256 7  -7201374.423 7  21710537.301    21710541.979         -39.489
       -28.546
 -28107310.434 9  18770756.617 9  23484454.963    23484461.008        2900.218
      2254.442
 88  3 25  4 51 29.0800000  0  4G 6G 9G11G13
   1124306.727 8 -12254676.457 8  21534895.494    21534900.971        -743.728
      -571.308
 -15946493.664 9 -12555759.272 9  21888456.041    21888461.668        2042.934
      1595.731
  -9153591.422 8  -7200013.244 8  21710870.217    21710875.121         -53.484
       -54.240
 -28193853.919 9  18703320.161 8  23467985.700    23467992.436        2878.248
      2246.755
 88  3 25  4 51 59.0800000  0  4G 6G 9G11G13
   1146811.038 8 -12237140.637 8  21539179.079    21539182.282        -748.593
      -588.097
 -16007604.469 9 -12603378.080 8  21876827.582    21876832.780        2024.649
      1585.416
  -9151345.370 7  -7198263.057 8  21711296.052    21711303.876         -63.069
       -49.835
 -28280017.829 9  18636179.474 8  23451589.519    23451595.333        2861.997
      2238.802
 88  3 25  4 52 29.0800000  0  4G 6G 9G11G13
   1169866.192 9 -12219175.587 9  21543565.443    21543570.173        -790.522
      -600.718
 -16068315.158 9 -12650685.094 8  21865273.536    21865279.879        2008.421
      1562.531
  -9148601.547 8  -7196125.013 8  21711818.554    21711824.119         -84.696
       -69.992
 -28365801.143 9  18569335.353 8  23435265.359    23435272.025        2855.194
      2238.739
 88  3 25  4 52 59.0800000  0  4G 6G 9G11G13
   1193472.917 9 -12200780.750 9  21548056.975    21548062.311        -815.242
      -615.774
 -16128623.070 9 -12697678.256 8  21853798.134    21853802.775        2004.043
      1571.267
  -9145361.340 8  -7193600.167 8  21712435.233    21712442.071        -126.752
       -91.883
 -28451201.758 9  18502789.444 8  23419014.336    23419020.851        2838.448
      2218.917
 88  3 25  4 53 29.0800000  0  4G 6G 9G11G13
   1217632.042 7 -12181955.464 9  21552654.523    21552659.201        -807.412
      -631.072
 -16188524.861 9 -12744354.960 9  21842400.475    21842404.499        1995.224
      1551.526
  -9141625.699 7  -7190689.263 8  21713146.919    21713151.765        -130.995
      -114.613
 -28536218.317 8  18436542.802 8  23402837.955    23402840.969        2838.568
      2215.363
 88  3 25  4 53 59.0800000  0  4G 6G 9G11G13
   1242344.089 8 -12162699.345 9  21557357.084    21557361.803        -834.827
      -645.003
 -16248017.684 9 -12790712.993 8  21831079.597    21831082.476        1969.634
      1526.292
  -9137395.937 9  -7187393.341 9  21713951.788    21713957.167        -157.007
      -114.153
 -28620848.912 9  18370596.885 8  23386731.856    23386737.694        2814.892
      2181.858
 88  3 25  4 54 29.0800000  0  4G 6G 9G11G13
   1267609.696 9 -12143011.871 8  21562166.473    21562169.452        -839.875
      -673.910
 -16307098.778 9 -12836750.190 9  21819836.854    21819840.056        1958.765
      1529.504
  -9132673.326 9  -7183713.383 8  21714850.737    21714855.657        -163.490
      -129.651
 -28705092.335 9  18304952.682 9  23370700.908    23370706.401        2802.189
      2199.872
 88  3 25  4 54 59.0800000  0  4G 6G 9G11G13
   1293429.609 9 -12122892.474 8  21567079.766    21567082.518        -865.409
      -664.297
 -16365765.123 9 -12882464.206 8  21808671.422    21808677.778        1951.724
      1520.364
  -9127459.057 9  -7179650.313 8  21715842.829    21715847.851        -174.431
      -124.114
 -28788946.815 8  18239611.546 8  23354743.330    23354749.618        2792.173
      2168.586
 88  3 25  4 55 29.0800000  0  4G 6G 9G11G13
   1319804.380 9 -12102340.722 8  21572098.499    21572101.503        -891.254
      -698.249
 -16424013.883 9 -12927852.851 8  21797588.124    21797592.512        1950.225
      1506.718
  -9121754.604 8  -7175205.270 7  21716927.300    21716933.592        -195.348
      -161.627
 -28872411.005 9  18174574.548 9  23338861.848    23338866.719        2786.049
      2166.852
 88  3 25  4 55 59.0800000  0  4G 6G 9G11G13
   1346734.677 8 -12081356.090 9  21577222.696    21577226.291        -909.930
      -709.042
 -16481842.022 9 -12972913.726 8  21786584.467    21786587.957        1926.955
      1507.085
  -9115561.191 7  -7170379.224 8  21718105.474    21718111.768        -222.309
      -172.824
 -28955483.548 9  18109842.692 9  23323051.882    23323059.339        2777.508
      2149.081
 88  3 25  4 56 29.0800000  0  4G 6G 9G11G13
   1374221.117 8 -12059938.095 8  21582452.449    21582456.514        -903.128
      -695.117
 -16539246.695 9 -13017644.633 8  21775659.869    21775664.575        1897.075
      1491.184
  -9108879.823 8  -7165172.960 8  21719378.118    21719383.012        -239.175
      -180.343
 -29038162.694 8  18045417.416 8  23307320.734    23307324.923        2736.632
      2149.683
 88  3 25  4 56 59.0800000  0  4G 6G 9G11G13
   1402264.176 9 -12038086.385 8  21587789.587    21587793.716        -950.105
      -726.012
 -16596224.862 9 -13062043.207 7  21764816.976    21764820.826        1908.702
      1465.596
  -9101711.901 8  -7159587.554 7  21720741.917    21720746.695        -247.715
      -189.247
 -29120446.817 9  17981299.928 8  23291661.453    23291666.434        2730.005
      2125.686
 88  3 25  4 57 29.0800000  0  4G 6G 9G11G13
   1430864.683 8 -12015800.294 8  21593231.328    21593237.001        -956.349
      -755.497
 -16652773.834 8 -13106107.332 9  21754056.063    21754060.538        1885.656
      1464.197
  -9094058.983 8  -7153624.229 8  21722197.451    21722202.529        -266.407
      -206.018
 -29202334.328 9  17917491.497 8  23276079.721    23276084.210        2724.255
      2125.444
 88  3 25  4 57 59.0800000  0  4G 6G 9G11G13
   1460022.999 8 -11993079.536 9  21598779.798    21598785.000        -985.399
      -767.371
 -16708890.266 9 -13149834.409 7  21743377.370    21743382.609        1875.002
      1450.981
  -9085922.138 9  -7147283.829 8  21723746.173    21723750.937        -273.800
      -211.697
 -29283824.009 9  17853993.049 9  23260571.159    23260578.264        2687.007
      2114.545
 88  3 25  4 58 29.0800000  0  4G 6G 9G11G13
   1489739.478 9 -11969923.848 9  21604435.156    21604440.445       -1005.925
      -768.608
 -16764571.644 9 -13193222.502 9  21732782.049    21732786.077        1841.542
      1447.861
  -9077303.047 8  -7140567.640 8  21725385.963    21725390.556        -294.533
      -225.579
 -29364914.342 9  17790805.833 9  23245141.297    23245146.119        2694.766
      2099.750
 88  3 25  4 58 59.0800000  0  4G 6G 9G11G13
   1520014.799 9 -11946332.703 8  21610197.674    21610200.120       -1007.672
      -788.629
 -16819814.901 9 -13236269.196 8  21722268.988    21722272.812        1836.048
      1428.133
  -9068202.898 9  -7133476.603 7  21727118.849    21727122.499        -323.847
      -234.906
 -29445603.760 9  17727930.956 8  23229786.627    23229791.217        2688.658
      2099.445
 88  3 25  4 59 29.0800000  0  4G 6G 9G11G13
   1550849.298 8 -11922305.825 8  21616064.347    21616068.395       -1047.511
      -797.576
 -16874617.271 8 -13278972.328 8  21711840.864    21711845.218        1817.324
      1413.791
  -9058623.211 9  -7126011.910 8  21728941.653    21728946.188        -332.100
      -254.336
 -29525890.832 9  17665369.622 9  23214508.156    23214513.206        2662.957
      2091.361
 88  3 25  4 59 59.0800000  0  4G 6G 9G11G13
   1582243.233 9 -11897843.022 8  21622037.827    21622043.765       -1064.393
      -820.667
 -16928976.072 9 -13321329.834 9  21701496.940    21701500.656        1812.404
      1406.254
  -9048565.259 8  -7118174.540 7  21730856.290    21730859.710        -346.167
      -263.365
 -29605774.281 9  17603122.782 9  23199306.654    23199312.224        2651.681
      2064.381
 88  3 25  5  0 29.0800000  0  4G 6G 9G11G13
   1614196.853 8 -11872944.109 9  21628119.194    21628124.058       -1072.862
      -840.607
 -16982888.345 8 -13363339.414 9  21691237.308    21691241.361        1788.584
      1397.374
  -9038030.634 9  -7109965.703 7  21732860.464    21732863.721        -344.460
      -292.868
 -29685252.889 9  17541191.436 9  23184182.232    23184188.321        2639.241
      2060.789
 88  3 25  5  0 59.0800000  0  4G 6G 9G11G13
   1646710.674 9 -11847608.684 8  21634306.788    21634311.318       -1098.635
      -842.782
 -17036351.234 9 -13404998.802 8  21681064.029    21681067.803        1780.754
      1387.836
  -9027020.753 8  -7101386.551 8  21734954.466    21734959.973        -379.452
      -297.423
 -29764325.454 9  17479576.473 8  23169134.656    23169141.107        2643.204
      2049.343
 88  3 25  5  1 29.0800000  0  4G 6G 9G11G13
   1679785.011 8 -11821836.469 9  21640599.999    21640604.176       -1111.362
      -867.190
 -17089361.944 9 -13446305.844 9  21670975.531    21670980.027        1761.942
      1375.496
  -9015537.019 8  -7092438.179 7  21737140.116    21737146.081        -399.898
      -311.124
 -29842990.162 9  17418279.318 9  23154165.708    23154171.898        2601.921
      2034.225
 88  3 25  5  1 59.0800000  0  4G 6G 9G11G13
   1713419.983 8 -11795627.403 9  21646999.515    21647005.952       -1149.137
      -877.268
 -17141917.734 9 -13487258.413 9  21660975.168    21660979.464        1744.191
      1354.543
  -9003581.132 8  -7083121.890 8  21739415.418    21739421.082        -404.268
      -318.804
 -29921246.095 9  17357300.688 9  23139275.459    23139279.303        2599.951
      2042.521
 88  3 25  5  2 29.0800000  0  4G 6G 9G11G13
   1747615.878 9 -11768981.278 8  21653508.877    21653512.498       -1150.468
      -886.365
 -17194016.101 9 -13527854.531 8  21651061.912    21651065.727        1730.667
      1336.697
  -8991154.648 8  -7073438.922 8  21741780.088    21741784.421        -414.037
      -334.420
 -29999092.317 9  17296641.314 8  23124460.881    23124466.201        2590.207
      2020.766
 88  3 25  5  2 59.0800000  0  4G 6G 9G11G13
   1782372.790 9 -11741897.982 8  21660122.314    21660126.096       -1175.915
      -905.230
 -17245654.179 8 -13568091.994 8  21641235.035    21641238.687        1710.276
      1327.407
  -8978259.487 8  -7063390.735 8  21744233.978    21744240.003        -453.669
      -339.913
 -30076527.416 9  17236302.282 9  23109725.523    23109731.779        2579.154
      2006.406
 88  3 25  5  3 29.0800000  0  4G 6G 9G11G13
   1817690.872 9 -11714377.409 8  21666842.314    21666846.769       -1185.444
      -933.006
 -17296829.189 9 -13607968.619 8  21631496.301    21631500.864        1687.812
      1325.027
  -8964897.039 9  -7052978.439 7  21746776.141    21746782.867        -457.393
      -340.428
 -30153550.309 8  17176284.465 9  23095068.530    23095074.347        2590.940
      1998.782
 88  3 25  5  3 59.0800000  0  4G 6G 9G11G13
   1853569.915 9 -11686419.728 9  21673669.898    21673674.561       -1200.436
      -938.269
 -17347538.869 9 -13647482.635 9  21621845.790    21621851.560        1685.029
      1310.891
  -8951069.524 8  -7042203.741 8  21749407.775    21749412.868        -472.122
      -367.906
 -30230160.552 9  17116588.200 8  23080490.594    23080494.335        2550.311
      1982.589
 88  3 25  5  4 29.0800000  0  4G 6G 9G11G13
   1890010.290 8 -11658024.635 9  21680604.523    21680609.457       -1209.327
      -955.357
 -17397780.002 9 -13686631.562 8  21612285.017    21612290.773        1667.079
      1297.662
  -8936777.979 8  -7031067.463 8  21752127.451    21752132.998        -463.462
      -374.343
 -30306356.311 9  17057214.891 9  23065990.679    23065996.737        2538.852
      1962.425
 88  3 25  5  4 59.0800000  0  4G 6G 9G11G13
   1927012.043 9 -11629192.109 8  21687645.346    21687650.400       -1235.746
      -963.578
 -17447550.003 9 -13725413.373 8  21602814.254    21602820.006        1651.752
      1300.390
  -8922024.111 7  -7019570.949 8  21754933.964    21754940.890        -501.794
      -388.896
 -30382136.286 9  16998165.586 9  23051569.703    23051575.756        2520.319
      1965.028
 88  3 25  5  5 29.0800000  0  4G 6G 9G11G13
   1964575.242 9 -11599922.107 8  21694794.681    21694797.940       -1255.993
      -974.191
 -17496846.426 8 -13763826.167 9  21593433.798    21593438.774        1639.368
      1273.565
  -8906809.887 8  -7007715.695 8  21757829.494    21757835.389        -515.909
      -388.212
 -30457499.063 9  16939441.348 8  23037228.347    23037234.973        2502.154
      1960.144
 88  3 25  5  5 59.0800000  0  4G 6G 9G11G13
   2002699.975 9 -11570214.536 8  21702048.855    21702053.329       -1265.164
      -991.509
 -17545666.366 8 -13801867.655 9  21584142.697    21584148.367        1617.104
      1265.394
  -8891136.702 8  -6995502.823 8  21760812.858    21760818.224        -536.547
      -411.545
 -30532444.311 9  16881042.476 8  23022966.759    23022972.898        2498.629
      1945.828
 88  3 25  5  6 29.0800000  0  4G 6G 9G11G13
   2041386.310 9 -11540069.346 8  21709410.244    21709414.908       -1283.146
     -1003.091
 -17594007.088 8 -13839535.740 8  21574944.770    21574948.469        1581.714
      1259.248
  -8875006.196 8  -6982933.597 8  21763882.757    21763888.180        -544.457
      -412.483
 -30606970.576 9  16822970.084 9  23008784.915    23008790.116        2483.119
      1928.641
 88  3 25  5  6 59.0800000  0  4G 6G 9G11G13
   2080634.139 9 -11509486.628 9  21716880.191    21716884.078       -1305.179
     -1024.914
 -17641866.056 8 -13876828.434 8  21565837.346    21565842.493        1602.303
      1244.957
  -8858420.093 8  -6970009.347 9  21767038.321    21767043.643        -560.438
      -429.317
 -30681077.089 9  16765224.776 8  22994682.818    22994689.025        2454.547
      1914.032
 88  3 25  5  7 29.0800000  0  4G 6G 9G11G13
   2120443.525 9 -11478466.356 9  21724455.179    21724459.965       -1343.926
     -1042.971
 -17689240.611 9 -13913743.665 8  21556823.422    21556827.148        1575.095
      1229.198
  -8841380.076 8  -6956731.411 8  21770280.754    21770286.990        -578.324
      -454.607
 -30754762.301 8  16707807.748 9  22980661.881    22980666.989        2453.079
      1910.223
 88  3 25  5  7 59.0800000  0  4G 6G 9G11G13
   2160814.568 8 -11447008.418 9  21732137.051    21732141.724       -1371.749
     -1052.056
 -17736127.859 9 -13950279.184 8  21547900.419    21547905.831        1567.727
      1210.153
  -8823887.738 8  -6943101.019 9  21773610.029    21773615.420        -582.319
      -465.002
 -30828025.364 9  16650719.673 8  22966720.028    22966725.239        2447.298
      1903.959
 88  3 25  5  8 29.0800000  0  4G 6G 9G11G13
   2201747.224 9 -11415112.858 9  21739926.776    21739930.519       -1380.130
     -1061.824
 -17782525.036 9 -13986432.813 8  21539071.815    21539076.079        1525.758
      1211.116
  -8805944.610 8  -6929119.361 8  21777025.070    21777030.164        -590.812
      -459.690
 -30900864.415 9  16593962.001 9  22952859.094    22952865.605        2415.871
      1881.671
 88  3 25  5  8 59.0800000  0  4G 6G 9G11G13
   2243240.138 9 -11382780.729 9  21747822.704    21747826.388       -1393.559
     -1083.448
 -17828430.788 9 -14022203.505 8  21530336.460    21530340.082        1531.053
      1185.348
  -8787553.846 8  -6914788.895 8  21780523.391    21780529.413        -604.759
      -482.482
 -30973280.539 9  16537533.861 9  22939079.421    22939083.811        2405.058
      1875.805
 88  3 25  5  9 29.0800000  0  4G 6G 9G11G13
   2285284.957 9 -11350018.552 9  21755823.259    21755826.813       -1407.450
     -1086.331
 -17873850.778 9 -14057595.697 8  21521693.359    21521696.775        1507.010
      1171.889
  -8768725.555 8  -6900117.485 8  21784106.603    21784112.455        -617.351
      -479.543
 -31045280.593 9  16481429.937 9  22925377.531    22925382.750        2398.232
      1869.168
 88  3 25  5  9 59.0800000  0  4G 6G 9G11G13
   2327880.648 9 -11316827.125 9  21763929.087    21763933.251       -1433.438
     -1110.086
 -17918783.383 9 -14092608.110 7  21513143.007    21513146.988        1490.798
      1165.327
  -8749462.394 8  -6885107.228 8  21787771.882    21787777.519        -644.240
      -497.991
 -31116864.587 9  16425650.221 9  22911754.998    22911760.712        2391.717
      1858.015
 88  3 25  5 10 29.0800000  0  4G 6G 9G11G13
   2371033.337 9 -11283201.663 8  21772140.540    21772145.502       -1450.799
     -1123.558
 -17963219.590 9 -14127233.730 9  21504686.346    21504690.674        1459.507
      1153.645
  -8729759.556 8  -6869754.357 9  21791521.699    21791527.234        -654.774
      -513.433
 -31188024.951 9  16370200.603 9  22898214.581    22898220.091        2373.735
      1861.824
 88  3 25  5 10 59.0800000  0  4G 6G 9G11G13
   2414744.814 9 -11249140.780 9  21780457.839    21780463.213       -1481.157
     -1139.142
 -18007154.911 9 -14161469.029 8  21496324.921    21496330.221        1465.782
      1150.308
  -8709617.079 9  -6854058.931 8  21795353.734    21795360.600        -681.002
      -531.409
 -31258758.964 9  16315083.225 8  22884754.178    22884759.081        2361.893
      1832.215
 88  3 25  5 11 29.0800000  0  4G 6G 9G11G13
   2459014.387 9 -11214645.029 9  21788882.567    21788887.924       -1468.621
     -1153.148
 -18050587.246 9 -14195312.415 7  21488061.143    21488064.822        1427.577
      1103.823
  -8689037.549 7  -6838022.929 9  21799270.490    21799277.044        -706.727
      -537.610
 -31329066.196 9  16260298.386 8  22871375.635    22871380.494        2337.156
      1827.033
 88  3 25  5 11 59.0800000  0  4G 6G 9G11G13
   2503839.243 9 -11179716.579 9  21797412.790    21797417.720       -1499.394
     -1173.094
 -18093514.909 9 -14228762.538 9  21479892.622    21479896.145        1427.665
      1107.576
  -8668023.288 9  -6821648.172 9  21803269.817    21803274.853        -711.775
      -546.720
 -31398946.972 9  16205845.860 8  22858077.533    22858080.780        2317.595
      1821.565
 88  3 25  5 12 29.0800000  0  4G 6G 9G11G13
   2549223.162 9 -11144352.505 9  21806048.918    21806053.263       -1515.255
     -1187.541
 -18135935.187 8 -14261817.300 8  21471820.767    21471824.479        1406.509
      1104.655
  -8646575.870 9  -6804935.907 8  21807350.843    21807356.366        -728.123
      -553.008
 -31468399.355 9  16151727.127 8  22844860.792    22844864.639        2298.672
      1792.975
 88  3 25  5 12 59.0800000  0  4G 6G 9G11G13
   2595163.545 8 -11108554.815 9  21814790.971    21814796.701       -1548.716
     -1203.187
 -18177845.162 9 -14294474.427 7  21463845.289    21463848.305        1396.844
      1082.025
  -8624696.850 8  -6787887.310 8  21811515.354    21811520.215        -728.800
      -578.211
 -31537422.659 9  16097942.755 8  22831726.405    22831730.423        2300.546
      1795.827
 88  3 25  5 13 29.0800000  0  4G 6G 9G11G13
   2641660.487 8 -11072323.430 9  21823638.646    21823644.194       -1544.298
     -1216.516
 -18219242.275 9 -14326731.907 8  21455967.876    21455971.061        1376.494
      1062.986
  -8602387.790 9  -6770503.618 8  21815760.171    21815765.137        -755.331
      -575.987
 -31606015.883 9  16044493.509 8  22818673.207    22818678.719        2297.484
      1787.581
 88  3 25  5 13 59.0800000  0  4G 6G 9G11G13
   2688712.635 9 -11035659.438 8  21832592.527    21832597.462       -1572.567
     -1227.608
 -18260125.093 9 -14358588.642 8  21448188.080    21448191.152        1364.285
      1048.874
  -8579652.012 9  -6752787.421 8  21820086.786    21820091.792        -764.940
      -599.282
 -31674179.574 8  15991378.959 8  22805701.365    22805707.466        2265.618
      1748.633
 88  3 25  5 14 29.0800000  0  4G 6G 9G11G13
   2736320.474 9 -10998562.447 9  21841652.141    21841657.030       -1599.776
     -1233.038
 -18300490.231 9 -14390041.996 7  21440506.301    21440510.416        1344.772
      1023.864
  -8556490.805 8  -6734739.721 8  21824494.157    21824499.236        -784.071
      -610.324
 -31741911.527 8  15938600.836 7  22792812.193    22792818.729        2254.909
      1757.960
 88  3 25  5 14 59.0800000  0  4G 6G 9G11G13
   2784483.695 9 -10961032.671 9  21850817.542    21850822.545       -1608.906
     -1257.682
 -18340335.161 9 -14421089.992 8  21432922.582    21432927.637        1328.560
      1037.397
  -8532905.490 7  -6716361.535 8  21828981.227    21828987.190        -777.332
      -617.886
 -31809211.173 9  15886159.594 8  22780005.526    22780011.294        2240.340
      1756.028
 88  3 25  5 15 29.0800000  0  4G 6G 9G11G13
   2833202.761 9 -10923069.766 9  21860088.848    21860093.450       -1622.471
     -1271.402
 -18379656.618 8 -14451730.084 8  21425441.113    21425444.619        1314.190
      1002.227
  -8508897.297 8  -6697653.843 8  21833550.472    21833554.720        -807.675
      -631.948
 -31876077.240 9  15834056.184 8  22767279.880    22767287.416        2222.979
      1751.013
 88  3 25  5 15 59.0800000  0  4G 6G 9G11G13
   2882476.310 9 -10884674.804 8  21869464.946    21869469.354       -1655.181
     -1281.643
 -18418452.988 8 -14481961.021 7  21418058.529    21418062.940        1287.867
      1006.372
  -8484468.794 9  -6678618.640 8  21838199.087    21838203.762        -815.386
      -639.175
 -31942509.653 8  15782290.670 8  22754639.309    22754646.350        2216.050
      1713.271
 88  3 25  5 16 29.0800000  0  4G 6G 9G11G13
   2932304.062 9 -10845848.000 8  21878946.966    21878951.110       -1659.400
     -1300.303
 -18456721.789 9 -14511780.860 8  21410776.405    21410780.873        1265.522
       989.210
  -8459621.686 9  -6659257.256 9  21842927.550    21842932.901        -838.567
      -643.549
 -32008507.194 9  15730864.059 9  22742080.831    22742086.735        2189.368
      1699.091
 88  3 25  5 16 59.0800000  0  4G 6G 9G11G13
   2982684.971 9 -10806590.165 9  21888533.629    21888539.327       -1690.859
     -1318.285
 -18494461.025 9 -14541188.062 8  21403595.520    21403597.070        1237.979
       974.446
  -8434358.929 9  -6639571.985 8  21847735.319    21847740.337        -838.360
      -672.164
 -32074069.833 9  15679776.277 8  22729606.086    22729609.837        2166.377
      1701.831
 88  3 25  5 17 29.0800000  0  4G 6G 9G11G13
   3033618.128 9 -10766902.002 9  21898225.150    21898230.663       -1699.160
     -1330.359
 -18531668.714 9 -14570181.050 8  21396514.545    21396517.811        1240.339
       962.608
  -8408682.611 8  -6619564.460 9  21852620.536    21852626.015        -859.061
      -672.853
 -32139197.365 9  15629027.571 9  22717211.522    22717217.660        2160.038
      1683.519
 88  3 25  5 17 59.0800000  0  4G 6G 9G11G13
   3085104.157 9 -10726783.033 8  21908023.405    21908027.915       -1724.774
     -1342.780
 -18568341.385 9 -14598757.148 8  21389535.383    21389539.559        1203.609
       943.936
  -8382593.486 9  -6599235.256 8  21857586.298    21857590.115        -873.902
      -687.375
 -32203887.559 9  15578619.645 8  22704901.264    22704907.843        2150.652
      1679.375
 88  3 25  5 18 29.0800000  0  4G 6G 9G11G13
   3137142.145 8 -10686233.977 9  21917926.151    21917930.795       -1740.882
     -1355.494
 -18604476.918 9 -14626914.693 8  21382658.637    21382664.542        1192.294
       923.977
  -8356093.863 9  -6578586.186 8  21862628.405    21862633.509        -889.627
      -703.481
 -32268139.929 8  15528552.885 8  22692674.499    22692680.228        2135.405
      1655.309
 88  3 25  5 18 59.0800000  0  4G 6G 9G11G13
   3189731.319 9 -10645255.423 8  21927933.300    21927938.330       -1740.706
     -1372.190
 -18640073.302 8 -14654652.133 8  21375884.961    21375889.784        1188.905
       911.394
  -8329185.912 9  -6557618.951 8  21867748.525    21867754.689        -903.957
      -710.658
 -32331954.778 9  15478827.036 8  22680532.248    22680536.212        2109.026
      1642.968
 88  3 25  5 19 29.0800000  0  4G 6G 9G11G13
   3242871.287 9 -10603847.671 9  21938045.951    21938048.927       -1784.773
     -1381.927
 -18675127.638 8 -14681967.211 8  21369214.253    21369219.559        1159.416
       904.267
  -8301871.324 8  -6536334.857 9  21872946.112    21872952.592        -918.000
      -721.762
 -32395330.993 8  15429442.985 9  22668471.317    22668476.985        2100.398
      1649.244
 88  3 25  5 19 59.0800000  0  4G 6G 9G11G13
   3296561.392 9 -10562011.241 9  21948262.382    21948266.938       -1792.308
     -1404.297
 -18709638.040 9 -14708858.432 8  21362646.753    21362652.265        1144.384
       890.125
  -8274151.964 9  -6514735.364 9  21878221.768    21878227.389        -917.498
      -726.037
 -32458267.846 9  15380401.284 8  22656495.201    22656499.669        2107.112
      1624.513
 88  3 25  5 20 29.0800000  0  4G 6G 9G11G13
   3350800.784 8 -10519746.799 8  21958583.564    21958588.119       -1823.345
     -1408.342
 -18743602.233 8 -14735324.015 7  21356183.557    21356189.361        1123.515
       866.786
  -8246030.323 9  -6492822.383 9  21883571.449    21883577.686        -951.500
      -736.352
 -32520764.414 8  15331702.684 8  22644601.602    22644607.127        2095.501
      1612.806
 88  3 25  5 20 59.0800000  0  4G 6G 9G11G13
   3405588.653 9 -10477054.979 8  21969010.177    21969014.596       -1834.596
     -1423.820
 -18777017.709 8 -14761362.053 9  21349826.259    21349831.211        1092.208
       867.115
  -8217508.206 8  -6470597.355 8  21889000.100    21889006.452        -960.200
      -738.688
 -32582820.255 8  15283347.505 8  22632791.670    22632798.919        2065.829
      1613.956
 88  3 25  5 21 29.0800000  0  4G 6G 9G11G13
   3460923.727 9 -10433936.761 8  21979540.210    21979545.010       -1852.084
     -1438.584
 -18809883.352 9 -14786971.635 8  21343572.200    21343576.551        1096.394
       853.283
  -8188588.755 9  -6448062.718 9  21894502.224    21894508.617        -958.454
      -745.735
 -32644436.304 9  15235335.025 8  22621068.385    22621073.544        2043.174
      1595.749
 88  3 25  5 21 59.0800000  0  4G 6G 9G11G13
   3516805.662 9 -10390392.426 8  21990174.413    21990177.840       -1871.773
     -1463.241
 -18842196.290 8 -14812150.553 8  21337421.805    21337426.731        1073.548
       833.772
  -8159273.154 8  -6425219.398 9  21900081.547    21900087.482        -979.267
      -764.171
 -32705610.995 9  15187666.447 8  22609426.982    22609432.850        2027.552
      1581.657
 88  3 25  5 22 29.0800000  0  4G 6G 9G11G13
   3573234.618 9 -10346421.840 8  22000911.773    22000916.302       -1884.061
     -1465.154
 -18873953.316 9 -14836896.279 8  21331379.635    21331384.600        1055.015
       821.002
  -8129562.489 9  -6402068.226 8  21905735.265    21905740.066        -997.377
      -786.062
 -32766342.744 9  15140343.018 7  22597870.183    22597875.422        2017.767
      1578.258
 88  3 25  5 22 59.0800000  0  4G 6G 9G11G13
   3630209.409 9 -10302025.921 8  22011754.304    22011758.348       -1912.378
     -1495.167
 -18905152.545 8 -14861207.371 8  21325442.232    21325447.063        1027.615
       808.040
  -8099459.166 8  -6378611.083 9  21911463.626    21911470.063       -1022.297
      -788.914
 -32826631.855 9  15093364.513 9  22586396.685    22586402.349        2006.811
      1549.867
 88  3 25  5 23 29.0800000  0  4G 6G 9G11G13
   3687728.957 9 -10257205.499 9  22022699.784    22022704.216       -1928.662
     -1495.956
 -18935792.296 8 -14885082.469 9  21319611.513    21319616.664        1004.434
       784.646
  -8068965.774 9  -6354849.983 9  21917266.503    21917272.895       -1017.767
      -791.965
 -32886477.809 8  15046731.328 9  22575008.689    22575014.213        1981.596
      1546.661
 88  3 25  5 23 59.0800000  0  4G 6G 9G11G13
   3745791.852 9 -10211961.694 8  22033748.686    22033754.011       -1942.266
     -1521.843
 -18965870.656 8 -14908520.162 8  21313887.570    21313892.488        1013.445
       762.556
  -8038084.667 8  -6330786.795 9  21923142.881    21923148.610       -1032.528
      -821.692
 -32945880.809 9  15000443.298 9  22563704.339    22563709.369        1982.409
      1542.541
 88  3 25  5 24 29.0800000  0  4G 6G 9G11G13
   3804397.595 9 -10166294.902 8  22044900.864    22044905.011       -1958.015
     -1517.841
 -18995385.499 8 -14931518.752 8  21308272.049    21308275.897         979.698
       767.471
  -8006817.643 9  -6306422.871 8  21929092.613    21929098.196       -1058.365
      -807.475
 -33004840.428 9  14954500.753 8  22552485.920    22552490.577        1953.231
      1539.055
 88  3 25  5 24 59.0800000  0  4G 6G 9G11G13
   3863545.019 9 -10120206.017 8  22056156.507    22056161.011       -1981.947
     -1538.496
 -19024334.663 9 -14954076.524 8  21302761.987    21302767.252         959.004
       747.941
  -7975167.090 8  -6281760.103 9  21935115.963    21935121.694       -1054.250
      -834.959
 -33063356.166 9  14908904.097 8  22541350.405    22541355.618        1946.086
      1526.460
 88  3 25  5 25 29.0800000  0  4G 6G 9G11G13
   3923234.573 9 -10073694.699 8  22067515.219    22067518.950       -2005.383
     -1557.081
 -19052714.965 8 -14976191.046 8  21297362.786    21297366.710         943.661
       745.263
  -7943133.571 8  -6256798.914 8  21941212.137    21941217.167       -1074.513
      -849.772
 -33121426.095 9  14863654.821 9  22530298.836    22530305.059        1931.341
      1498.069
 88  3 25  5 25 59.0800000  0  4G 6G 9G11G13
   3983464.507 8 -10026762.304 8  22078975.816    22078981.065       -2020.431
     -1569.117
 -19080524.888 8 -14997861.109 8  21292070.572    21292073.626         908.566
       715.182
  -7910720.180 8  -6231541.730 9  21947380.033    21947385.855       -1083.739
      -839.948
 -33179050.802 9  14818752.482 8  22519332.993    22519340.326        1928.502
      1497.416
 88  3 25  5 26 29.0800000  0  4G 6G 9G11G13
   4044233.576 8  -9979409.806 8  22090540.617    22090545.183       -2033.732
     -1582.825
 -19107762.474 7 -15019085.214 7  21286887.457    21286891.981         904.467
       687.673
  -7877929.217 9  -6205990.324 9  21953619.660    21953625.053       -1099.401
      -851.257
 -33236230.294 9  14774197.062 8  22508453.110    22508459.470        1890.305
      1488.928
 88  3 25  5 26 59.0800000  0  4G 6G 9G11G13
   4105540.132 9  -9931638.485 9  22102206.954    22102210.924       -2048.190
     -1592.226
 -19134426.731 8 -15039862.557 8  21281813.023    21281817.210         884.364
       680.664
  -7844763.275 9  -6180146.728 9  21959931.776    21959936.055       -1113.978
      -854.476
 -33292965.049 9  14729988.191 9  22497657.188    22497662.470        1879.851
      1469.063
 88  3 25  5 27 29.0800000  0  4G 6G 9G11G13
   4167383.628 9  -9883448.773 9  22113973.833    22113979.760       -2066.531
     -1609.457
 -19160515.154 8 -15060191.185 6  21276849.227    21276853.282         866.717
       669.964
  -7811224.525 9  -6154012.631 8  21966313.706    21966319.628       -1119.711
      -863.113
 -33349253.593 9  14686126.991 9  22486946.022    22486951.382        1868.902
      1460.214
 88  3 25  5 27 59.0800000  0  4G 6G 9G11G13
   4229763.475 9  -9834841.117 9  22125845.290    22125849.421       -2061.754
     -1629.720
 -19186024.937 8 -15080068.947 8  21271993.742    21271997.899         838.121
       662.097
  -7777314.322 9  -6127589.098 8  21972766.678    21972771.933       -1127.558
      -900.110
 -33405095.459 8  14642613.879 8  22476319.322    22476323.971        1855.146
      1439.510
 88  3 25  5 28 29.0800000  0  4G 6G 9G11G13
   4292678.319 9  -9785816.575 7  22137817.236    22137821.911       -2105.717
     -1628.732
 -19210954.654 8 -15099494.687 7  21267250.312    21267254.326         844.213
       635.627
  -7743034.862 9  -6100877.821 9  21979289.679    21979294.657       -1148.236
      -885.856
 -33460491.046 9  14599448.515 8  22465778.009    22465782.125        1832.539
      1438.267
 88  3 25  5 28 59.0800000  0  4G 6G 9G11G13
   4356126.935 9  -9736376.109 9  22149891.646    22149896.650       -2115.796
     -1662.262
 -19235302.356 8 -15118466.926 8  21262617.606    21262621.370         806.877
       628.064
  -7708388.638 9  -6073880.755 8  21985882.976    21985887.709       -1166.505
      -910.232
 -33515439.598 9  14556631.493 8  22455320.997    22455327.300        1828.584
      1422.037
 88  3 25  5 29 29.0800000  0  4G 6G 9G11G13
   4420108.835 8  -9686520.105 9  22162066.768    22162071.405       -2150.708
     -1669.774
 -19259065.717 8 -15136983.843 8  21258095.226    21258098.841         780.562
       600.009
  -7673377.253 8  -6046599.153 8  21992545.305    21992549.907       -1162.573
      -915.769
 -33569940.319 9  14514163.417 8  22444949.374    22444955.726        1813.098
      1408.075
 88  3 25  5 29 59.0800000  0  4G 6G 9G11G13
   4484622.070 8  -9636250.061 8  22174342.890    22174348.007       -2164.001
     -1692.492
 -19282243.384 8 -15155044.368 7  21253684.969    21253688.764         749.677
       596.405
  -7638003.411 9  -6019035.124 8  21999276.042    21999282.391       -1185.388
      -925.817
 -33623994.076 8  14472043.629 8  22434663.964    22434668.593        1791.583
      1418.911
 88  3 25  5 30 29.0800000  0  4G 6G 9G11G13
   4549665.275 9  -9585567.061 8  22186721.492    22186725.477       -2171.912
     -1689.397
 -19304833.929 8 -15172647.381 8  21249386.188    21249388.339         760.857
       572.787
  -7602269.800 8  -5991190.738 8  22006076.554    22006081.268       -1187.326
      -935.398
 -33677600.926 9  14430272.052 8  22424462.468    22424469.378        1779.940
      1382.772
 88  3 25  5 30 59.0800000  0  4G 6G 9G11G13
   4615238.510 9  -9534471.051 8  22199198.482    22199204.816       -2189.160
     -1729.557
 -19326834.031 8 -15189790.309 7  21245199.973    21245203.496         726.847
       563.944
  -7566177.014 9  -5963066.479 9  22012944.895    22012949.086       -1210.667
      -938.847
 -33730759.411 9  14388849.892 9  22414346.516    22414352.411        1771.567
      1382.480
 88  3 25  5 31 29.0800000  0  4G 6G 9G11G13
   4681340.568 9  -9482962.965 9  22211777.235    22211782.425       -2205.476
     -1721.212
 -19348241.928 8 -15206471.784 8  21241125.067    21241129.590         703.729
       547.571
  -7529727.242 9  -5934664.063 8  22019881.099    22019885.880       -1225.451
      -936.044
 -33783469.108 9  14347777.412 9  22404316.441    22404321.846        1729.343
      1355.226
 88  3 25  5 31 59.0800000  0  4G 6G 9G11G13
   4747969.491 9  -9431044.339 8  22224456.569    22224462.318       -2230.770
     -1742.712
 -19369056.503 8 -15222690.946 8  21237164.034    21237167.845         685.181
       514.209
  -7492923.747 9  -5905986.008 9  22026884.368    22026888.885       -1224.231
      -957.426
 -33835731.126 9  14307053.780 9  22394371.156    22394377.739        1741.480
      1338.710
 88  3 25  5 32 29.0800000  0  4G 6G 9G11G13
   4815123.761 9  -9378716.354 9  22237236.774    22237240.887       -2242.421
     -1743.184
 -19389276.245 8 -15238446.580 8  21233316.714    21233321.662         660.795
       516.776
  -7455768.635 8  -5877033.961 9  22033953.813    22033960.232       -1240.961
      -973.209
 -33887545.147 8  14266679.246 9  22384511.075    22384516.621        1717.174
      1340.357
 88  3 25  5 32 59.0800000  0  4G 6G 9G11G13
   4882802.531 9  -9325979.671 9  22250114.014    22250119.588       -2260.937
     -1767.418
 -19408898.903 8 -15253736.969 9  21229582.090    21229587.598         659.726
       500.756
  -7418263.864 8  -5847809.470 8  22041091.238    22041096.228       -1249.239
      -975.695
 -33938910.911 9  14226653.998 8  22374736.907    22374741.574        1703.219
      1327.662
 88  3 25  5 33 29.0800000  0  4G 6G 9G11G13
   4951004.617 8  -9272835.195 8  22263093.973    22263098.163       -2279.773
     -1780.603
 -19427922.803 7 -15268560.785 8  21225962.438    21225966.848         631.130
       491.784
  -7380411.451 8  -5818314.072 9  22048294.393    22048299.879       -1254.566
      -990.918
 -33989827.941 8  14186978.418 8  22365048.036    22365053.490        1675.548
      1312.115
 88  3 25  5 33 59.0800000  0  4G 6G 9G11G13
   5019727.847 9  -9219284.648 8  22276170.567    22276175.088       -2309.549
     -1773.526
 -19446346.934 8 -15282917.237 8  21222455.941    21222460.555         601.585
       477.970
  -7342214.152 8  -5788549.960 8  22055562.887    22055569.030       -1262.444
     -1003.377
 -34040297.095 8  14147651.825 9  22355443.114    22355449.224        1685.013
      1313.693
 88  3 25  5 34 29.0800000  0  4G 6G 9G11G13
   5088972.144 9  -9165328.067 9  22289348.093    22289352.618       -2313.672
     -1819.949
 -19464168.172 8 -15296803.908 8  21219065.822    21219070.063         579.911
       460.653
  -7303673.131 8  -5758517.992 8  22062897.072    22062901.805       -1296.742
     -1009.025
 -34090317.116 9  14108675.209 9  22345925.747    22345930.921        1657.709
      1292.076
 88  3 25  5 34 59.0800000  0  4G 6G 9G11G13
   5158735.483 9  -9110967.056 9  22302623.055    22302628.080       -2340.745
     -1823.988
 -19481385.514 7 -15310220.022 8  21215788.611    21215793.704         572.025
       433.455
  -7264791.211 8  -5728220.389 9  22070295.193    22070301.228       -1292.428
     -1008.155
 -34139887.765 8  14070048.737 9  22336492.104    22336497.978        1650.142
      1282.575
 88  3 25  5 35 29.0800000  0  4G 6G 9G11G13
   5229015.087 9  -9056203.749 9  22315996.885    22316000.832       -2358.336
     -1840.200
 -19497999.064 7 -15323165.644 8  21212627.368    21212632.544         531.180
       419.368
  -7225572.167 9  -5697660.084 9  22077758.296    22077765.219       -1300.354
     -1010.380
 -34189011.141 9  14031770.813 9  22327143.517    22327149.654        1643.355
      1276.529
 88  3 25  5 35 59.0800000  0  4G 6G 9G11G13
   5299811.083 9  -9001038.055 8  22329468.801    22329474.504       -2363.735
     -1846.003
 -19514005.253 7 -15335637.990 9  21209581.641    21209586.069         516.308
       411.110
  -7186016.460 9  -5666837.460 9  22085286.399    22085291.417       -1319.062
     -1032.458
 -34237686.499 8  13993841.990 9  22317881.484    22317886.267        1612.176
      1262.075
 88  3 25  5 36 29.0800000  0  4G 6G 9G11G13
   5371122.790 9  -8945470.510 9  22343039.187    22343044.407       -2395.840
     -1861.041
 -19529402.131 8 -15347635.558 8  21206651.546    21206656.187         507.648
       390.213
  -7146125.722 8  -5635753.764 9  22092876.817    22092882.214       -1339.253
     -1025.318
 -34285912.287 8  13956263.481 8  22308704.070    22308709.647        1589.664
      1253.003
 88  3 25  5 36 59.0800000  0  4G 6G 9G11G13
   5442947.592 9  -8889503.158 8  22356706.717    22356711.709       -2406.087
     -1868.584
 -19544188.887 8 -15359157.709 8  21203837.721    21203841.722         490.862
       373.908
  -7105903.246 9  -5604411.560 9  22100531.036    22100536.625       -1325.984
     -1041.567
 -34333689.354 9  13919034.622 9  22299613.569    22299618.820        1592.248
      1235.232
 88  3 25  5 37 29.0800000  0  4G 6G 9G11G13
   5515284.049 9  -8833137.097 8  22370472.643    22370477.464       -2413.264
     -1890.295
 -19558364.027 8 -15370203.280 8  21201139.784    21201143.724         437.888
       366.445
  -7065350.954 9  -5572812.381 9  22108247.723    22108253.789       -1353.264
     -1049.583
 -34381017.638 8  13882155.474 9  22290606.153    22290611.707        1566.754
      1226.427
 88  3 25  5 37 59.0800000  0  4G 6G 9G11G13
   5588130.878 9  -8776373.353 9  22384334.525    22384339.340       -2429.236
     -1900.138
 -19571925.779 8 -15380770.868 7  21198559.028    21198563.559         445.790
       352.614
  -7024471.133 9  -5540957.965 9  22116026.626    22116033.060       -1358.703
     -1062.545
 -34427897.662 9  13845625.587 9  22281686.385    22281690.896        1557.727
      1227.235
 88  3 25  5 38 29.0800000  0  4G 6G 9G11G13
   5661486.561 9  -8719213.102 9  22398293.384    22398297.827       -2444.619
     -1911.584
 -19584872.754 7 -15390859.414 8  21196096.053    21196101.252         437.704
       334.432
  -6983266.108 9  -5508850.143 8  22123868.467    22123873.945       -1376.533
     -1070.890
 -34474329.252 9  13809445.148 8  22272848.980    22272855.095        1549.282
      1199.223
 88  3 25  5 38 59.0800000  0  4G 6G 9G11G13
   5735349.791 9  -8661657.375 9  22412349.310    22412354.339       -2471.277
     -1915.641
 -19597203.226 7 -15400467.588 7  21193748.606    21193753.909         415.185
       299.921
  -6941737.682 9  -5476490.346 8  22131770.627    22131775.983       -1369.221
     -1088.469
 -34520312.730 9  13773613.895 9  22264100.785    22264105.724        1525.462
      1193.979
 88  3 25  5 39 29.0800000  0  4G 6G 9G11G13
   5809719.051 9  -8603707.322 8  22426501.779    22426505.998       -2490.081
     -1944.424
 -19608915.510 7 -15409594.019 7  21191520.476    21191525.610         351.278
       290.538
  -6899888.009 9  -5443880.200 8  22139735.310    22139739.841       -1394.755
     -1088.823
 -34565847.855 9  13738132.004 9  22255435.039    22255440.402        1513.405
      1167.800
 88  3 25  5 39 59.0800000  0  4G 6G 9G11G13
   5884591.903 9  -8545364.866 9  22440749.558    22440754.596       -2501.428
     -1949.171
 -19620009.237 7 -15418238.499 8  21189409.813    21189412.867         362.929
       277.924
  -6857720.196 9  -5411022.172 9  22147759.717    22147763.166       -1416.254
     -1088.096
 -34610935.148 9  13702999.061 9  22246854.927    22246860.462        1500.080
      1156.584
 88  3 25  5 40 29.0800000  0  4G 6G 9G11G13
   5959967.180 8  -8486630.901 9  22455092.672    22455098.046       -2517.855
     -1967.272
 -19630482.198 7 -15426399.253 7  21187416.305    21187422.013         358.017
       264.142
  -6815235.978 9  -5377917.586 8  22155843.537    22155848.665       -1423.590
     -1125.068
 -34655574.390 9  13668215.247 8  22238360.967    22238365.947        1495.774
      1165.426
 88  3 25  5 40 59.0800000  0  4G 6G 9G11G13
   6035844.440 9  -8427505.790 8  22469531.528    22469535.716       -2529.043
     -1956.534
 -19640332.363 7 -15434074.718 7  21185541.006    21185546.301         307.595
       239.336
  -6772436.698 9  -5344567.498 8  22163987.953    22163992.936       -1440.185
     -1102.617
 -34699764.932 9  13633781.080 9  22229951.352    22229955.962        1466.404
      1150.793
 88  3 25  5 41 29.0800000  0  4G 6G 9G11G13
   6112221.518 9  -8367991.194 8  22484065.860    22484070.736       -2561.571
     -1989.853
 -19649559.027 8 -15441264.329 8  21183785.398    21183790.575         309.102
       231.103
  -6729325.221 8  -5310974.147 8  22172192.233    22172196.579       -1434.395
     -1116.797
 -34743508.229 9  13599695.414 9  22221628.208    22221632.789        1453.239
      1136.812
 88  3 25  5 41 59.0800000  0  4G 6G 9G11G13
   6189095.542 9  -8308089.375 9  22498694.033    22498698.581       -2564.792
     -1994.935
 -19658161.427 7 -15447967.485 7  21182148.974    21182154.634         271.670
       204.651
  -6685904.537 9  -5277139.850 9  22180454.782    22180459.172       -1453.789
     -1132.636
 -34786805.109 8  13565957.604 9  22213387.962    22213393.113        1437.266
      1113.473
 88  3 25  5 42 29.0800000  0  4G 6G 9G11G13
   6266465.617 9  -8247801.029 8  22513417.285    22513422.052       -2592.934
     -2011.930
 -19666137.914 8 -15454182.941 7  21180630.562    21180637.485         280.051
       207.609
  -6642176.418 9  -5243065.991 8  22188775.675    22188780.691       -1454.052
     -1143.467
 -34829654.702 9  13532568.330 8  22205234.083    22205239.060        1417.043
      1119.040
 88  3 25  5 42 59.0800000  0  4G 6G 9G11G13
   6344330.761 9  -8187126.919 8  22528234.513    22528239.005       -2595.430
     -2034.865
 -19673486.383 7 -15459909.008 7  21179232.902    21179238.847         250.530
       187.370
  -6598142.358 9  -5208753.730 8  22197155.645    22197160.539       -1470.176
     -1137.241
 -34872056.444 9  13499528.022 9  22197165.647    22197170.923        1415.711
      1090.295
 88  3 25  5 43 29.0800000  0  4G 6G 9G11G13
   6422688.469 9  -8126068.982 9  22543145.458    22543150.703       -2618.994
     -2046.566
 -19680206.367 7 -15465145.395 7  21177954.818    21177959.056         208.099
       160.937
  -6553805.172 9  -5174205.273 9  22205591.768    22205597.444       -1484.379
     -1159.039
 -34914011.698 9  13466835.637 8  22189181.132    22189186.530        1383.686
      1091.787
 88  3 25  5 43 59.0800000  0  4G 6G 9G11G13
   6501537.408 9  -8064628.278 9  22558150.987    22558154.775       -2630.852
     -2044.161
 -19686296.191 7 -15469890.706 8  21176795.355    21176800.827         183.187
       149.864
  -6509166.858 9  -5139422.171 9  22214086.583    22214091.390       -1501.635
     -1161.114
 -34955519.976 9  13434491.534 9  22181283.143    22181286.849        1386.900
      1080.807
 88  3 25  5 44 29.0800000  0  4G 6G 9G11G13
   6580874.884 9  -8002806.875 8  22573247.894    22573251.883       -2664.591
     -2077.150
 -19691755.500 7 -15474144.721 8  21175755.835    21175762.427         147.039
       135.044
  -6464230.298 9  -5104406.672 8  22222637.389    22222642.452       -1500.439
     -1166.576
 -34996582.988 8  13402494.409 9  22173467.856    22173473.737        1356.207
      1055.206
 88  3 25  5 44 59.0800000  0  4G 6G 9G11G13
   6660699.120 9  -7940606.210 8  22588438.084    22588442.328       -2676.106
     -2082.245
 -19696583.244 7 -15477906.604 8  21174835.914    21174842.774         172.398
       112.892
  -6418997.798 9  -5069160.569 9  22231245.363    22231250.235       -1492.114
     -1177.556
 -35037200.984 9  13370844.041 9  22165739.700    22165744.108        1345.210
      1047.141
 88  3 25  5 45 29.0800000  0  4G 6G 9G11G13
   6741007.496 9  -7878028.259 8  22603719.414    22603724.702       -2667.980
     -2084.122
 -19700778.992 8 -15481176.025 8  21174040.405    21174043.866         128.547
       117.652
  -6373472.396 9  -5033686.226 9  22239908.480    22239913.373       -1516.093
     -1171.926
 -35077374.970 9  13339539.660 8  22158095.061    22158099.209        1331.446
      1031.525
 88  3 25  5 45 59.0800000  0  4G 6G 9G11G13
   6821797.078 9  -7815075.382 8  22619093.453    22619097.801       -2702.828
     -2100.377
 -19704342.875 8 -15483953.091 8  21173360.333    21173365.732         107.710
        79.300
  -6327657.515 9  -4997986.318 8  22248626.698    22248631.963       -1530.606
     -1185.130
 -35117106.921 9  13308579.718 9  22150533.513    22150538.862        1310.259
      1035.129
 88  3 25  5 46 29.0800000  0  4G 6G 9G11G13
   6903065.238 9  -7751749.557 9  22634558.132    22634563.972       -2712.134
     -2113.178
 -19707274.453 8 -15486237.447 7  21172802.368    21172808.371          90.062
        77.598
  -6281556.355 9  -4962063.337 9  22257399.950    22257403.865       -1532.799
     -1198.919
 -35156397.147 9  13277963.956 8  22143056.990    22143061.954        1304.653
      1013.133
 88  3 25  5 46 59.0800000  0  4G 6G 9G11G13
   6984810.918 9  -7688051.649 9  22650114.006    22650119.484       -2731.791
     -2132.005
 -19709572.095 7 -15488027.827 8  21172366.491    21172369.944          61.036
        44.354
  -6235170.485 8  -4925918.507 8  22266226.673    22266231.895       -1543.341
     -1192.500
 -35195245.424 9  13247692.593 9  22135664.219    22135669.254        1294.996
      1004.819
 88  3 25  5 47 29.0800000  0  4G 6G 9G11G13
   7067033.047 9  -7623982.483 9  22665760.342    22665765.741       -2729.814
     -2147.335
 -19711233.570 7 -15489322.496 7  21172050.859    21172053.894          50.980
        39.110
  -6188500.918 9  -4889552.616 9  22275107.685    22275113.087       -1547.839
     -1217.467
 -35233651.579 9  13217765.753 9  22128356.916    22128361.677        1274.270
      1000.742
 88  3 25  5 47 59.0800000  0  4G 6G 9G11G13
   7149730.456 9  -7559542.971 9  22681497.084    22681501.870       -2773.880
     -2157.575
 -19712257.575 7 -15490120.424 7  21171855.596    21171858.136          28.827
        30.373
  -6141549.226 9  -4852966.871 9  22284041.703    22284047.407       -1558.516
     -1220.474
 -35271615.279 9  13188183.662 9  22121131.457    22121136.132        1257.564
       989.794
 88  3 25  5 48 29.0800000  0  4G 6G 9G11G13
   7232901.861 9  -7494734.117 9  22697324.664    22697329.052       -2771.248
     -2176.477
 -19712642.164 8 -15490420.122 8  21171782.298    21171786.616          21.459
        18.101
  -6094317.313 9  -4816162.781 9  22293029.668    22293035.778       -1590.262
     -1228.552
 -35309136.131 9  13158946.649 8  22113992.316    22113997.196        1236.264
       963.472
 88  3 25  5 48 59.0800000  0  4G 6G 9G11G13
   7316545.850 9  -7429556.996 9  22713241.094    22713246.385       -2786.671
     -2174.756
 -19712386.002 8 -15490220.518 7  21171831.473    21171834.590         -22.783
       -16.616
  -6046807.040 9  -4779141.786 9  22302070.759    22302077.149       -1587.296
     -1242.844
 -35346214.047 9  13130054.775 9  22106935.204    22106940.825        1243.529
       957.463
 88  3 25  5 49 29.0800000  0  4G 6G 9G11G13
   7400660.662 9  -7364013.009 9  22729247.910    22729251.695       -2802.922
     -2181.001
 -19711487.967 8 -15489520.754 8  21172002.263    21172005.410         -46.419
       -34.337
  -5999020.175 9  -4741905.265 8  22311163.518    22311170.183       -1600.732
     -1241.763
 -35382849.768 7  13101507.487 8  22099963.531    22099970.122        1207.788
       945.844
 88  3 25  5 49 59.0800000  0  4G 6G 9G11G13
   7485244.668 9  -7298103.417 8  22745343.907    22745348.593       -2825.075
     -2206.179
 -19709946.961 8 -15488319.967 8  21172294.947    21172300.123         -75.533
       -55.433
  -5950958.530 9  -4704454.637 9  22320310.090    22320315.726       -1598.803
     -1239.097
 -35419043.377 9  13073304.682 8  22093076.302    22093081.873        1197.366
       945.396
 88  3 25  5 50 29.0800000  0  4G 6G 9G11G13
   7570295.872 9  -7231829.773 9  22761529.285    22761533.242       -2834.581
     -2205.371
 -19707761.974 8 -15486617.384 8  21172711.006    21172716.602        -101.211
       -64.101
  -5902624.241 9  -4666791.563 9  22329507.915    22329513.463       -1613.978
     -1255.035
 -35454795.412 9  13045445.977 9  22086273.543    22086278.245        1194.000
       933.124
 88  3 25  5 50 59.0800000  0  4G 6G 9G11G13
   7655812.422 9  -7165193.526 9  22777801.863    22777806.340       -2849.604
     -2230.848
 -19704932.043 9 -15484412.253 7  21173249.776    21173253.113        -101.753
       -83.464
  -5854019.711 9  -4628917.887 9  22338756.419    22338762.567       -1624.129
     -1269.656
 -35490105.668 8  13017931.523 8  22079553.536    22079559.497        1162.374
       908.604
 88  3 25  5 51 29.0800000  0  4G 6G 9G11G13
   7741792.487 9  -7098196.096 9  22794163.305    22794168.182       -2868.535
     -2235.527
 -19701456.201 8 -15481703.811 8  21173910.989    21173915.574        -139.854
       -99.650
  -5805146.753 9  -4590835.070 8  22348056.931    22348062.479       -1631.115
     -1272.247
 -35524975.367 8  12990760.343 8  22072917.785    22072923.849        1163.506
       895.475
 88  3 25  5 51 59.0800000  0  4G 6G 9G11G13
   7828233.971 9  -7030839.097 9  22810612.143    22810616.518       -2891.988
     -2257.499
 -19697333.596 7 -15478491.394 7  21174695.196    21174699.921        -151.154
      -123.008
  -5756007.816 9  -4552544.993 8  22357407.474    22357412.698       -1649.631
     -1270.166
 -35559404.495 8  12963932.479 8  22066366.287    22066371.503        1143.108
       890.125
 88  3 25  5 52 29.0800000  0  4G 6G 9G11G13
   7915135.065 9  -6963123.976 8  22827148.806    22827153.536       -2888.376
     -2256.704
 -19692563.445 7 -15474774.398 7  21175603.261    21175608.185        -154.336
      -140.599
  -5706604.803 9  -4514049.134 9  22366807.885    22366814.739       -1655.086
     -1280.145
 -35593393.336 9  12937447.672 8  22059898.601    22059903.328        1150.811
       864.219
 88  3 25  5 52 59.0800000  0  4G 6G 9G11G13
   8002494.140 9  -6895051.998 9  22843773.552    22843778.144       -2906.270
     -2265.067
 -19687144.373 8 -15470551.762 8  21176634.031    21176638.528        -190.531
      -150.864
  -5656939.399 9  -4475348.813 7  22376259.738    22376265.607       -1661.282
     -1274.571
 -35626942.011 9  12911305.870 8  22053514.948    22053518.691        1100.270
       880.748
 88  3 25  5 53 29.0800000  0  4G 6G 9G11G13
   8090309.190 9  -6826624.697 9  22860484.045    22860488.174       -2931.940
     -2299.473
 -19681075.723 8 -15465822.954 7  21177789.267    21177793.384        -221.950
      -153.543
  -5607013.818 8  -4436445.769 8  22385760.596    22385766.031       -1673.562
     -1304.770
 -35660051.194 8  12885506.532 9  22047214.153    22047219.331        1097.909
       852.413
 88  3 25  5 53 59.0800000  0  4G 6G 9G11G13
   8178578.499 9  -6757843.447 8  22877280.505    22877286.983       -2960.312
     -2282.988
 -19674356.483 5 -15460587.210 6  21179068.051    21179071.840        -209.486
      -176.919
  -5556830.198 1  -4397341.645 1  22395311.398    22395315.573       -1724.439
     -1317.925
 -35692721.199 9  12860049.395 8  22040997.420    22041002.376        1078.580
       844.652
 88  3 25  5 54 29.0800000  0  4G 6G 9G11G13
   8267300.188 8  -6688709.694 8  22894163.844    22894169.375       -2961.899
     -2309.956
 -19666985.747 8 -15454843.771 7  21180470.314    21180474.988        -238.529
      -210.504
  -5506390.113 1  -4358037.666 1  22404907.834    22404914.888       -1738.944
     -1295.096
 -35724952.593 9  12834934.041 8  22034864.321    22034868.176        1067.104
       834.120
 88  3 25  5 54 59.0800000  0  4G 6G 9G11G13
   8356472.327 9  -6619224.916 8  22911132.457    22911137.955       -2955.360
     -2320.681
 -19658962.434 9 -15448591.865 7  21181996.937    21182002.971        -265.100
      -213.388
  -5455695.547 1  -4318535.428 1  22414555.056    22414561.883       -1671.569
     -1307.927
 -35756745.982 8  12810159.988 8  22028814.351    22028818.763        1040.526
       812.185
 88  3 25  5 55 29.0800000  0  4G 6G 9G11G13
   8446093.140 9  -6549390.535 9  22928186.311    22928192.499       -2994.985
     -2344.430
 -19650285.881 7 -15441830.909 7  21183648.334    21183651.915        -284.996
      -217.706
  -5404748.553 9  -4278836.468 9  22424249.718    22424255.621       -1689.654
     -1325.903
 -35788100.732 1  12785727.738 1  22022848.255    22022851.510        1035.367
       855.564
 88  3 25  5 55 59.0800000  0  4G 6G 9G11G13
   8536160.685 9  -6479208.058 9  22945325.972    22945331.617       -2993.852
     -2346.145
 -19640955.254 7 -15434560.306 5  21185425.491    21185428.220        -324.006
      -234.048
  -5353551.036 9  -4238942.286 9  22433992.370    22433998.580       -1718.410
     -1335.491
 -35819017.871 1  12761636.478 1  22016965.277    22016972.124         995.184
       808.991
